Time,TemperatureF,DewpointF,PressureIn,WindDirection,WindDirectionDegrees,WindSpeedMPH,WindSpeedGustMPH,Humidity,HourlyPrecipIn,Conditions,Clouds,dailyrainin,SolarRadiationWatts/m^2,SoftwareType,DateUTC
2013-07-03 00:00:00,75.2,69.3,30.17,SSE,154,3.0,3.0,82,0.00,,,0.03,0,Wunderground v.1.15,2013-07-03 04:00:00,
2013-07-03 00:01:00,75.2,69.3,30.17,SSE,157,3.0,3.0,82,0.00,,,0.00,0,Wunderground v.1.15,2013-07-03 04:01:00,
2013-07-03 00:02:00,75.2,69.3,30.17,ESE,119,3.0,3.0,82,0.00,,,0.00,0,Wunderground v.1.15,2013-07-03 04:02:00,
2013-07-03 00:03:00,75.2,69.3,30.17,ESE,119,3.0,3.0,82,0.00,,,0.00,0,Wunderground v.1.15,2013-07-03 04:03:00,
2013-07-03 00:05:00,75.1,69.2,30.17,SE,136,2.0,4.0,82,0.00,,,0.00,0,Wunderground v.1.15,2013-07-03 04:05:00,
2013-07-03 00:07:00,75.1,69.2,30.17,SE,133,2.0,4.0,82,0.00,,,0.00,0,Wunderground v.1.15,2013-07-03 04:07:00,
2013-07-03 00:08:00,75.1,69.2,30.17,ESE,110,2.0,4.0,82,0.00,,,0.00,0,Wunderground v.1.15,2013-07-03 04:08:00,
2013-07-03 00:09:00,75.1,69.2,30.17,ESE,110,2.0,4.0,82,0.00,,,0.00,0,Wunderground v.1.15,2013-07-03 04:09:00,
2013-07-03 00:10:00,75.1,69.2,30.17,ESE,110,2.0,2.0,82,0.00,,,0.00,0,Wunderground v.1.15,2013-07-03 04:10:00,
2013-07-03 00:15:00,75.1,69.2,30.17,SE,146,2.0,2.0,82,0.00,,,0.00,0,Wunderground v.1.15,2013-07-03 04:15:00,
2013-07-03 00:16:00,75.1,69.2,30.17,SE,133,1.0,2.0,82,0.00,,,0.00,0,Wunderground v.1.15,2013-07-03 04:16:00,
2013-07-03 00:20:00,75.1,69.2,30.17,SE,146,2.0,4.0,82,0.00,,,0.00,0,Wunderground v.1.15,2013-07-03 04:20:00,
2013-07-03 00:21:00,75.0,69.1,30.17,SE,136,2.0,4.0,82,0.00,,,0.00,0,Wunderground v.1.15,2013-07-03 04:21:00,
2013-07-03 00:22:00,75.0,69.1,30.17,SE,132,2.0,4.0,82,0.00,,,0.00,0,Wunderground v.1.15,2013-07-03 04:22:00,
2013-07-03 00:26:00,74.9,69.0,30.17,SE,135,2.0,4.0,82,0.00,,,0.00,0,Wunderground v.1.15,2013-07-03 04:26:00,
2013-07-03 00:28:00,74.9,69.0,30.17,SE,134,2.0,4.0,82,0.00,,,0.00,0,Wunderground v.1.15,2013-07-03 04:28:00,
2013-07-03 00:29:00,74.9,69.0,30.17,SE,135,2.0,4.0,82,0.00,,,0.00,0,Wunderground v.1.15,2013-07-03 04:29:00,
2013-07-03 00:31:00,74.8,68.9,30.17,ESE,117,3.0,5.0,82,0.00,,,0.00,0,Wunderground v.1.15,2013-07-03 04:31:00,
2013-07-03 00:34:00,74.7,68.8,30.17,South,177,3.0,5.0,82,0.00,,,0.00,0,Wunderground v.1.15,2013-07-03 04:34:00,
2013-07-03 00:35:00,74.7,69.2,30.17,SE,146,3.0,5.0,83,0.00,,,0.00,0,Wunderground v.1.15,2013-07-03 04:35:00,
2013-07-03 00:36:00,74.6,69.1,30.17,SSE,150,3.0,5.0,83,0.00,,,0.00,0,Wunderground v.1.15,2013-07-03 04:36:00,
2013-07-03 00:37:00,74.6,69.1,30.17,South,175,3.0,5.0,83,0.00,,,0.00,0,Wunderground v.1.15,2013-07-03 04:37:00,
2013-07-03 00:41:00,74.5,69.0,30.17,SE,138,2.0,3.0,83,0.00,,,0.00,0,Wunderground v.1.15,2013-07-03 04:41:00,
2013-07-03 00:43:00,74.4,68.9,30.17,SE,129,2.0,3.0,83,0.00,,,0.00,0,Wunderground v.1.15,2013-07-03 04:43:00,
2013-07-03 00:46:00,74.3,68.8,30.17,South,169,2.0,4.0,83,0.00,,,0.00,0,Wunderground v.1.15,2013-07-03 04:46:00,
2013-07-03 00:50:00,74.2,68.7,30.17,SE,137,2.0,2.0,83,0.00,,,0.00,0,Wunderground v.1.15,2013-07-03 04:50:00,
2013-07-03 00:51:00,74.2,68.7,30.17,SE,136,2.0,2.0,83,0.00,,,0.00,0,Wunderground v.1.15,2013-07-03 04:51:00,
2013-07-03 00:52:00,74.2,68.7,30.17,SSE,153,2.0,2.0,83,0.00,,,0.00,0,Wunderground v.1.15,2013-07-03 04:52:00,
2013-07-03 00:53:00,74.2,68.7,30.17,SSE,153,2.0,2.0,83,0.00,,,0.00,0,Wunderground v.1.15,2013-07-03 04:53:00,
2013-07-03 00:54:00,74.2,68.7,30.17,South,173,2.0,2.0,83,0.00,,,0.00,0,Wunderground v.1.15,2013-07-03 04:54:00,
2013-07-03 00:58:00,74.2,69.1,30.17,SSE,151,1.0,2.0,84,0.00,,,0.00,0,Wunderground v.1.15,2013-07-03 04:58:00,
2013-07-03 00:59:00,74.2,69.1,30.17,SSE,161,1.0,2.0,84,0.00,,,0.00,0,Wunderground v.1.15,2013-07-03 04:59:00,
2013-07-03 01:00:00,74.2,69.1,30.17,ESE,111,2.0,4.0,84,0.00,,,0.00,0,Wunderground v.1.15,2013-07-03 05:00:00,
2013-07-03 01:01:00,74.2,68.7,30.17,SE,129,2.0,4.0,83,0.00,,,0.00,0,Wunderground v.1.15,2013-07-03 05:01:00,
2013-07-03 01:06:00,74.2,69.1,30.18,SE,146,3.0,5.0,84,0.00,,,0.00,0,Wunderground v.1.15,2013-07-03 05:06:00,
2013-07-03 01:08:00,74.2,69.1,30.18,SE,126,3.0,5.0,84,0.00,,,0.00,0,Wunderground v.1.15,2013-07-03 05:08:00,
2013-07-03 01:09:00,74.2,69.1,30.18,South,184,3.0,5.0,84,0.00,,,0.00,0,Wunderground v.1.15,2013-07-03 05:09:00,
2013-07-03 01:13:00,74.2,69.1,30.18,SSE,161,2.0,4.0,84,0.00,,,0.00,0,Wunderground v.1.15,2013-07-03 05:13:00,
2013-07-03 01:14:00,74.1,69.0,30.18,SSE,147,2.0,4.0,84,0.00,,,0.00,0,Wunderground v.1.15,2013-07-03 05:14:00,
2013-07-03 01:16:00,74.1,69.0,30.18,SE,138,2.0,5.0,84,0.00,,,0.00,0,Wunderground v.1.15,2013-07-03 05:16:00,
2013-07-03 01:20:00,74.0,68.9,30.18,SE,143,3.0,4.0,84,0.00,,,0.00,0,Wunderground v.1.15,2013-07-03 05:20:00,
2013-07-03 01:21:00,74.0,68.9,30.18,South,189,3.0,4.0,84,0.00,,,0.00,0,Wunderground v.1.15,2013-07-03 05:21:00,
2013-07-03 01:22:00,74.0,68.9,30.18,South,179,3.0,4.0,84,0.00,,,0.00,0,Wunderground v.1.15,2013-07-03 05:22:00,
2013-07-03 01:23:00,74.0,68.9,30.18,SE,126,3.0,4.0,84,0.00,,,0.00,0,Wunderground v.1.15,2013-07-03 05:23:00,
2013-07-03 01:26:00,74.0,68.9,30.18,SE,144,3.0,5.0,84,0.00,,,0.00,0,Wunderground v.1.15,2013-07-03 05:26:00,
2013-07-03 01:27:00,74.0,68.9,30.18,SE,135,3.0,5.0,84,0.00,,,0.00,0,Wunderground v.1.15,2013-07-03 05:27:00,
2013-07-03 01:32:00,73.9,68.8,30.18,South,169,2.0,3.0,84,0.00,,,0.00,0,Wunderground v.1.15,2013-07-03 05:32:00,
2013-07-03 01:33:00,73.9,69.1,30.18,South,169,2.0,3.0,85,0.00,,,0.00,0,Wunderground v.1.15,2013-07-03 05:33:00,
2013-07-03 01:35:00,73.8,69.0,30.18,South,177,2.0,3.0,85,0.00,,,0.00,0,Wunderground v.1.15,2013-07-03 05:35:00,
2013-07-03 01:36:00,73.9,69.1,30.18,South,177,2.0,3.0,85,0.00,,,0.00,0,Wunderground v.1.15,2013-07-03 05:36:00,
2013-07-03 01:39:00,73.8,68.7,30.18,South,177,1.0,3.0,84,0.00,,,0.00,0,Wunderground v.1.15,2013-07-03 05:39:00,
2013-07-03 01:41:00,73.7,68.9,30.18,SE,137,1.0,1.0,85,0.00,,,0.00,0,Wunderground v.1.15,2013-07-03 05:41:00,
2013-07-03 01:44:00,73.7,68.9,30.18,SE,137,1.0,2.0,85,0.00,,,0.00,0,Wunderground v.1.15,2013-07-03 05:44:00,
2013-07-03 01:45:00,73.7,68.9,30.18,SE,137,1.0,2.0,85,0.00,,,0.00,0,Wunderground v.1.15,2013-07-03 05:45:00,
2013-07-03 01:46:00,73.7,68.9,30.18,SE,129,1.0,2.0,85,0.00,,,0.00,0,Wunderground v.1.15,2013-07-03 05:46:00,
2013-07-03 01:51:00,73.7,68.9,30.18,SE,140,1.0,2.0,85,0.00,,,0.00,0,Wunderground v.1.15,2013-07-03 05:51:00,
2013-07-03 01:52:00,73.7,68.9,30.18,SE,134,1.0,2.0,85,0.00,,,0.00,0,Wunderground v.1.15,2013-07-03 05:52:00,
2013-07-03 01:55:00,73.6,68.8,30.17,SE,136,1.0,2.0,85,0.00,,,0.00,0,Wunderground v.1.15,2013-07-03 05:55:00,
2013-07-03 01:57:00,73.6,68.8,30.17,SE,134,1.0,5.0,85,0.00,,,0.00,0,Wunderground v.1.15,2013-07-03 05:57:00,
2013-07-03 01:58:00,73.6,68.8,30.17,SE,126,1.0,5.0,85,0.00,,,0.00,0,Wunderground v.1.15,2013-07-03 05:58:00,
2013-07-03 02:04:00,73.6,68.8,30.17,ESE,122,1.0,1.0,85,0.00,,,0.00,0,Wunderground v.1.15,2013-07-03 06:04:00,
2013-07-03 02:05:00,73.6,68.8,30.17,ESE,122,1.0,2.0,85,0.00,,,0.00,0,Wunderground v.1.15,2013-07-03 06:05:00,
2013-07-03 02:08:00,73.6,68.8,30.17,SSE,150,1.0,3.0,85,0.00,,,0.00,0,Wunderground v.1.15,2013-07-03 06:08:00,
2013-07-03 02:10:00,73.5,68.7,30.17,SE,142,1.0,1.0,85,0.00,,,0.00,0,Wunderground v.1.15,2013-07-03 06:10:00,
2013-07-03 02:11:00,73.5,68.7,30.17,SE,142,1.0,1.0,85,0.00,,,0.00,0,Wunderground v.1.15,2013-07-03 06:11:00,
2013-07-03 02:13:00,73.5,68.7,30.17,SE,142,1.0,1.0,85,0.00,,,0.00,0,Wunderground v.1.15,2013-07-03 06:13:00,
2013-07-03 02:16:00,73.5,68.7,30.18,SE,142,0.0,1.0,85,0.00,,,0.00,0,Wunderground v.1.15,2013-07-03 06:16:00,
2013-07-03 02:17:00,73.5,68.7,30.17,SE,142,0.0,1.0,85,0.00,,,0.00,0,Wunderground v.1.15,2013-07-03 06:17:00,
2013-07-03 02:18:00,73.4,68.6,30.17,SE,142,0.0,1.0,85,0.00,,,0.00,0,Wunderground v.1.15,2013-07-03 06:18:00,
2013-07-03 02:23:00,73.3,68.9,30.18,SSW,194,0.0,1.0,86,0.00,,,0.00,0,Wunderground v.1.15,2013-07-03 06:23:00,
2013-07-03 02:24:00,73.3,68.9,30.18,SSW,194,0.0,1.0,86,0.00,,,0.00,0,Wunderground v.1.15,2013-07-03 06:24:00,
2013-07-03 02:25:00,73.2,68.8,30.18,SSW,194,0.0,1.0,86,0.00,,,0.00,0,Wunderground v.1.15,2013-07-03 06:25:00,
2013-07-03 02:30:00,73.0,68.9,30.18,SSW,194,1.0,1.0,87,0.00,,,0.00,0,Wunderground v.1.15,2013-07-03 06:30:00,
2013-07-03 02:32:00,72.9,68.8,30.18,SSW,194,1.0,1.0,87,0.00,,,0.00,0,Wunderground v.1.15,2013-07-03 06:32:00,
2013-07-03 02:33:00,72.8,68.7,30.18,SSW,194,1.0,1.0,87,0.00,,,0.00,0,Wunderground v.1.15,2013-07-03 06:33:00,
2013-07-03 02:38:00,72.7,68.6,30.18,SSW,194,0.0,1.0,87,0.00,,,0.00,0,Wunderground v.1.15,2013-07-03 06:38:00,
2013-07-03 02:39:00,72.7,68.6,30.18,SSE,168,0.0,2.0,87,0.00,,,0.00,0,Wunderground v.1.15,2013-07-03 06:39:00,
2013-07-03 02:40:00,72.7,68.6,30.18,SE,146,0.0,2.0,87,0.00,,,0.00,0,Wunderground v.1.15,2013-07-03 06:40:00,
2013-07-03 02:42:00,72.7,68.6,30.18,SE,146,0.0,2.0,87,0.00,,,0.00,0,Wunderground v.1.15,2013-07-03 06:42:00,
2013-07-03 02:43:00,72.7,68.6,30.18,SE,146,0.0,2.0,87,0.00,,,0.00,0,Wunderground v.1.15,2013-07-03 06:43:00,
2013-07-03 02:46:00,72.7,68.6,30.18,SE,146,0.0,2.0,87,0.00,,,0.00,0,Wunderground v.1.15,2013-07-03 06:46:00,
2013-07-03 02:48:00,72.7,68.6,30.18,SE,146,0.0,2.0,87,0.00,,,0.00,0,Wunderground v.1.15,2013-07-03 06:48:00,
2013-07-03 02:49:00,72.7,68.6,30.18,SE,146,0.0,0.0,87,0.00,,,0.00,0,Wunderground v.1.15,2013-07-03 06:49:00,
2013-07-03 02:54:00,72.7,68.6,30.18,SE,146,0.0,1.0,87,0.00,,,0.00,0,Wunderground v.1.15,2013-07-03 06:54:00,
2013-07-03 02:56:00,72.7,68.6,30.18,SE,134,0.0,2.0,87,0.00,,,0.00,0,Wunderground v.1.15,2013-07-03 06:56:00,
2013-07-03 02:57:00,72.8,68.7,30.18,ESE,116,1.0,2.0,87,0.00,,,0.00,0,Wunderground v.1.15,2013-07-03 06:57:00,
2013-07-03 03:01:00,72.9,68.5,30.18,SE,139,1.0,2.0,86,0.00,,,0.00,0,Wunderground v.1.15,2013-07-03 07:01:00,
2013-07-03 03:03:00,72.9,68.5,30.18,SE,125,1.0,2.0,86,0.00,,,0.00,0,Wunderground v.1.15,2013-07-03 07:03:00,
2013-07-03 03:05:00,73.0,68.6,30.18,SE,140,2.0,2.0,86,0.00,,,0.00,0,Wunderground v.1.15,2013-07-03 07:05:00,
2013-07-03 03:08:00,73.0,68.6,30.18,SE,144,1.0,3.0,86,0.00,,,0.00,0,Wunderground v.1.15,2013-07-03 07:08:00,
2013-07-03 03:09:00,73.0,68.6,30.18,ESE,119,2.0,3.0,86,0.00,,,0.00,0,Wunderground v.1.15,2013-07-03 07:09:00,
2013-07-03 03:11:00,73.0,68.6,30.18,SE,133,1.0,1.0,86,0.00,,,0.00,0,Wunderground v.1.15,2013-07-03 07:11:00,
2013-07-03 03:13:00,73.0,68.6,30.18,SE,138,1.0,1.0,86,0.00,,,0.00,0,Wunderground v.1.15,2013-07-03 07:13:00,
2013-07-03 03:16:00,73.0,68.6,30.18,ESE,123,1.0,3.0,86,0.00,,,0.00,0,Wunderground v.1.15,2013-07-03 07:16:00,
2013-07-03 03:18:00,73.0,68.6,30.18,SSE,149,2.0,5.0,86,0.00,,,0.00,0,Wunderground v.1.15,2013-07-03 07:18:00,
2013-07-03 03:19:00,73.0,68.6,30.18,SE,135,2.0,5.0,86,0.00,,,0.00,0,Wunderground v.1.15,2013-07-03 07:19:00,
2013-07-03 03:21:00,73.0,68.6,30.18,SE,141,2.0,2.0,86,0.00,,,0.00,0,Wunderground v.1.15,2013-07-03 07:21:00,
2013-07-03 03:24:00,73.0,68.6,30.18,SE,138,3.0,5.0,86,0.00,,,0.00,0,Wunderground v.1.15,2013-07-03 07:24:00,
2013-07-03 03:25:00,73.0,68.6,30.18,ESE,118,3.0,5.0,86,0.00,,,0.00,0,Wunderground v.1.15,2013-07-03 07:25:00,
2013-07-03 03:29:00,73.1,68.7,30.18,SE,140,3.0,5.0,86,0.00,,,0.00,0,Wunderground v.1.15,2013-07-03 07:29:00,
2013-07-03 03:30:00,73.1,68.7,30.18,SE,124,3.0,3.0,86,0.00,,,0.00,0,Wunderground v.1.15,2013-07-03 07:30:00,
2013-07-03 03:35:00,73.0,68.6,30.18,WNW,282,2.0,3.0,86,0.00,,,0.00,0,Wunderground v.1.15,2013-07-03 07:35:00,
2013-07-03 03:37:00,73.0,68.6,30.18,WNW,282,1.0,3.0,86,0.00,,,0.00,0,Wunderground v.1.15,2013-07-03 07:37:00,
2013-07-03 03:38:00,73.0,68.6,30.18,WNW,282,1.0,3.0,86,0.00,,,0.00,0,Wunderground v.1.15,2013-07-03 07:38:00,
2013-07-03 03:43:00,72.9,68.5,30.18,NW,319,1.0,2.0,86,0.00,,,0.00,0,Wunderground v.1.15,2013-07-03 07:43:00,
2013-07-03 03:45:00,72.9,68.5,30.18,NW,319,0.0,2.0,86,0.00,,,0.00,0,Wunderground v.1.15,2013-07-03 07:45:00,
2013-07-03 03:46:00,72.9,68.5,30.18,NW,319,0.0,2.0,86,0.00,,,0.00,0,Wunderground v.1.15,2013-07-03 07:46:00,
2013-07-03 03:47:00,72.9,68.5,30.18,NW,319,0.0,2.0,86,0.00,,,0.00,0,Wunderground v.1.15,2013-07-03 07:47:00,
2013-07-03 03:51:00,72.8,68.4,30.18,NW,319,1.0,1.0,86,0.00,,,0.00,0,Wunderground v.1.15,2013-07-03 07:51:00,
2013-07-03 03:53:00,72.8,68.7,30.18,NNW,332,1.0,2.0,87,0.00,,,0.00,0,Wunderground v.1.15,2013-07-03 07:53:00,
2013-07-03 03:54:00,72.8,68.7,30.18,NNW,344,1.0,2.0,87,0.00,,,0.00,0,Wunderground v.1.15,2013-07-03 07:54:00,
2013-07-03 03:55:00,72.8,68.7,30.18,NW,324,1.0,2.0,87,0.00,,,0.00,0,Wunderground v.1.15,2013-07-03 07:55:00,
2013-07-03 03:58:00,72.6,68.5,30.18,NW,324,1.0,2.0,87,0.00,,,0.00,0,Wunderground v.1.15,2013-07-03 07:58:00,
2013-07-03 04:00:00,72.6,68.5,30.18,NW,324,1.0,1.0,87,0.00,,,0.00,0,Wunderground v.1.15,2013-07-03 08:00:00,
2013-07-03 04:01:00,72.6,68.5,30.18,NW,324,1.0,1.0,87,0.00,,,0.00,0,Wunderground v.1.15,2013-07-03 08:01:00,
2013-07-03 04:04:00,72.5,68.4,30.18,NW,324,1.0,1.0,87,0.00,,,0.00,0,Wunderground v.1.15,2013-07-03 08:04:00,
2013-07-03 04:07:00,72.5,68.4,30.18,North,351,1.0,1.0,87,0.00,,,0.00,0,Wunderground v.1.15,2013-07-03 08:07:00,
2013-07-03 04:08:00,72.5,68.4,30.18,North,351,1.0,1.0,87,0.00,,,0.00,0,Wunderground v.1.15,2013-07-03 08:08:00,
2013-07-03 04:09:00,72.5,68.4,30.18,NNW,347,1.0,1.0,87,0.00,,,0.00,0,Wunderground v.1.15,2013-07-03 08:09:00,
2013-07-03 04:12:00,72.6,68.5,30.18,NW,326,1.0,2.0,87,0.00,,,0.00,0,Wunderground v.1.15,2013-07-03 08:12:00,
2013-07-03 04:13:00,72.6,68.5,30.18,NW,326,1.0,2.0,87,0.00,,,0.00,0,Wunderground v.1.15,2013-07-03 08:13:00,
2013-07-03 04:15:00,72.6,68.5,30.18,NW,326,1.0,2.0,87,0.00,,,0.00,0,Wunderground v.1.15,2013-07-03 08:15:00,
2013-07-03 04:18:00,72.6,68.5,30.18,NW,326,1.0,2.0,87,0.00,,,0.00,0,Wunderground v.1.15,2013-07-03 08:18:00,
2013-07-03 04:19:00,72.6,68.5,30.18,WNW,284,1.0,2.0,87,0.00,,,0.00,0,Wunderground v.1.15,2013-07-03 08:19:00,
2013-07-03 04:22:00,72.7,68.6,30.18,SSE,157,1.0,2.0,87,0.00,,,0.00,0,Wunderground v.1.15,2013-07-03 08:22:00,
2013-07-03 04:25:00,72.7,68.6,30.18,SSE,167,1.0,2.0,87,0.00,,,0.00,0,Wunderground v.1.15,2013-07-03 08:25:00,
2013-07-03 04:27:00,72.6,68.5,30.18,SSE,167,1.0,2.0,87,0.00,,,0.00,0,Wunderground v.1.15,2013-07-03 08:27:00,
2013-07-03 04:28:00,72.6,68.5,30.18,SSE,167,1.0,2.0,87,0.00,,,0.00,0,Wunderground v.1.15,2013-07-03 08:28:00,
2013-07-03 04:31:00,72.4,68.6,30.19,SSE,167,1.0,2.0,88,0.00,,,0.00,0,Wunderground v.1.15,2013-07-03 08:31:00,
2013-07-03 04:33:00,72.4,68.6,30.19,SSE,167,1.0,2.0,88,0.00,,,0.00,0,Wunderground v.1.15,2013-07-03 08:33:00,
2013-07-03 04:37:00,72.2,68.4,30.19,SSE,167,1.0,2.0,88,0.00,,,0.00,0,Wunderground v.1.15,2013-07-03 08:37:00,
2013-07-03 04:38:00,72.2,68.4,30.19,SSE,167,1.0,2.0,88,0.00,,,0.00,0,Wunderground v.1.15,2013-07-03 08:38:00,
2013-07-03 04:39:00,72.2,68.4,30.19,SSE,167,0.0,2.0,88,0.00,,,0.00,0,Wunderground v.1.15,2013-07-03 08:39:00,
2013-07-03 04:44:00,72.1,68.3,30.19,SSE,167,0.0,0.0,88,0.00,,,0.00,0,Wunderground v.1.15,2013-07-03 08:44:00,
2013-07-03 04:48:00,72.1,68.7,30.19,SSE,167,0.0,0.0,89,0.00,,,0.00,0,Wunderground v.1.15,2013-07-03 08:48:00,
2013-07-03 04:50:00,72.1,68.3,30.19,SSE,167,0.0,0.0,88,0.00,,,0.00,0,Wunderground v.1.15,2013-07-03 08:50:00,
2013-07-03 04:55:00,72.1,68.7,30.19,SSE,167,0.0,0.0,89,0.00,,,0.00,0,Wunderground v.1.15,2013-07-03 08:55:00,
2013-07-03 04:56:00,72.2,68.8,30.19,SSE,167,0.0,0.0,89,0.00,,,0.00,0,Wunderground v.1.15,2013-07-03 08:56:00,
2013-07-03 04:57:00,72.2,68.8,30.19,SSE,167,0.0,0.0,89,0.00,,,0.00,0,Wunderground v.1.15,2013-07-03 08:57:00,
2013-07-03 05:01:00,72.3,68.5,30.19,SSE,167,0.0,1.0,88,0.00,,,0.00,0,Wunderground v.1.15,2013-07-03 09:01:00,
2013-07-03 05:02:00,72.3,68.5,30.19,SE,132,0.0,1.0,88,0.00,,,0.00,0,Wunderground v.1.15,2013-07-03 09:02:00,
2013-07-03 05:03:00,72.4,68.6,30.19,SE,132,0.0,2.0,88,0.00,,,0.00,0,Wunderground v.1.15,2013-07-03 09:03:00,
2013-07-03 05:04:00,72.5,68.7,30.19,SSE,151,1.0,2.0,88,0.00,,,0.00,0,Wunderground v.1.15,2013-07-03 09:04:00,
2013-07-03 05:08:00,72.7,68.6,30.19,SSE,151,1.0,2.0,87,0.00,,,0.00,0,Wunderground v.1.15,2013-07-03 09:08:00,
2013-07-03 05:11:00,72.9,68.8,30.19,SSE,167,1.0,2.0,87,0.00,,,0.00,0,Wunderground v.1.15,2013-07-03 09:11:00,
2013-07-03 05:13:00,72.9,68.5,30.20,South,169,1.0,2.0,86,0.00,,,0.00,0,Wunderground v.1.15,2013-07-03 09:13:00,
2013-07-03 05:15:00,73.0,68.6,30.20,South,171,1.0,2.0,86,0.00,,,0.00,0,Wunderground v.1.15,2013-07-03 09:15:00,
2013-07-03 05:16:00,73.0,68.6,30.20,South,184,1.0,2.0,86,0.00,,,0.00,0,Wunderground v.1.15,2013-07-03 09:16:00,
2013-07-03 05:17:00,73.0,68.6,30.19,South,187,1.0,3.0,86,0.00,,,0.00,0,Wunderground v.1.15,2013-07-03 09:17:00,
2013-07-03 05:21:00,73.1,68.7,30.20,SSE,165,1.0,1.0,86,0.00,,,0.00,0,Wunderground v.1.15,2013-07-03 09:21:00,
2013-07-03 05:22:00,73.0,68.6,30.20,SSE,165,1.0,1.0,86,0.00,,,0.00,0,Wunderground v.1.15,2013-07-03 09:22:00,
2013-07-03 05:27:00,73.0,68.9,30.20,SSE,165,1.0,2.0,87,0.00,,,0.00,0,Wunderground v.1.15,2013-07-03 09:27:00,
2013-07-03 05:29:00,72.9,68.8,30.20,SSE,165,1.0,2.0,87,0.00,,,0.00,0,Wunderground v.1.15,2013-07-03 09:29:00,
2013-07-03 05:30:00,72.9,69.1,30.20,SSE,165,1.0,1.0,88,0.00,,,0.00,0,Wunderground v.1.15,2013-07-03 09:30:00,
2013-07-03 05:31:00,72.8,69.0,30.20,SSE,165,0.0,1.0,88,0.00,,,0.00,0,Wunderground v.1.15,2013-07-03 09:31:00,
2013-07-03 05:33:00,72.8,69.0,30.20,SSE,165,0.0,1.0,88,0.00,,,0.00,0,Wunderground v.1.15,2013-07-03 09:33:00,
2013-07-03 05:35:00,72.7,68.9,30.20,SSE,165,0.0,1.0,88,0.00,,,0.00,0,Wunderground v.1.15,2013-07-03 09:35:00,
2013-07-03 05:37:00,72.6,68.8,30.20,SSE,165,0.0,1.0,88,0.00,,,0.00,0,Wunderground v.1.15,2013-07-03 09:37:00,
2013-07-03 05:38:00,72.6,68.8,30.20,SSE,165,0.0,1.0,88,0.00,,,0.00,0,Wunderground v.1.15,2013-07-03 09:38:00,
2013-07-03 05:42:00,72.6,68.8,30.20,SE,131,1.0,4.0,88,0.00,,,0.00,0,Wunderground v.1.15,2013-07-03 09:42:00,
2013-07-03 05:43:00,72.6,68.8,30.20,ESE,111,1.0,5.0,88,0.00,,,0.00,0,Wunderground v.1.15,2013-07-03 09:43:00,
2013-07-03 05:47:00,72.7,68.6,30.20,SE,128,2.0,5.0,87,0.00,,,0.00,0,Wunderground v.1.15,2013-07-03 09:47:00,
2013-07-03 05:48:00,72.7,68.6,30.21,SSE,152,2.0,5.0,87,0.00,,,0.00,0,Wunderground v.1.15,2013-07-03 09:48:00,
2013-07-03 05:49:00,72.7,68.6,30.20,SE,140,2.0,5.0,87,0.00,,,0.00,0,Wunderground v.1.15,2013-07-03 09:49:00,
2013-07-03 05:51:00,72.8,68.7,30.21,ESE,121,2.0,2.0,87,0.00,,,0.00,0,Wunderground v.1.15,2013-07-03 09:51:00,
2013-07-03 05:54:00,72.8,68.7,30.21,SSE,150,2.0,2.0,87,0.00,,,0.00,5,Wunderground v.1.15,2013-07-03 09:54:00,
2013-07-03 05:55:00,72.8,68.7,30.21,SE,130,2.0,2.0,87,0.00,,,0.00,5,Wunderground v.1.15,2013-07-03 09:55:00,
2013-07-03 05:59:00,72.9,68.8,30.21,SE,130,2.0,2.0,87,0.00,,,0.00,11,Wunderground v.1.15,2013-07-03 09:59:00,
2013-07-03 06:00:00,72.9,68.8,30.21,SE,130,2.0,2.0,87,0.00,,,0.00,11,Wunderground v.1.15,2013-07-03 10:00:00,
2013-07-03 06:01:00,72.9,68.8,30.21,SE,130,2.0,2.0,87,0.00,,,0.00,11,Wunderground v.1.15,2013-07-03 10:01:00,
2013-07-03 06:02:00,72.9,68.8,30.21,SE,130,2.0,2.0,87,0.00,,,0.00,12,Wunderground v.1.15,2013-07-03 10:02:00,
2013-07-03 06:06:00,73.0,68.9,30.21,SE,130,1.0,2.0,87,0.00,,,0.00,16,Wunderground v.1.15,2013-07-03 10:06:00,
2013-07-03 06:08:00,73.0,68.9,30.21,SE,130,1.0,3.0,87,0.00,,,0.00,18,Wunderground v.1.15,2013-07-03 10:08:00,
2013-07-03 06:10:00,73.0,68.9,30.21,SE,130,1.0,1.0,87,0.00,,,0.00,18,Wunderground v.1.15,2013-07-03 10:10:00,
2013-07-03 06:11:00,73.0,68.9,30.21,SE,130,1.0,4.0,87,0.00,,,0.00,18,Wunderground v.1.15,2013-07-03 10:11:00,
2013-07-03 06:12:00,73.0,68.9,30.21,SE,128,1.0,4.0,87,0.00,,,0.00,16,Wunderground v.1.15,2013-07-03 10:12:00,
2013-07-03 06:16:00,73.0,68.9,30.21,ESE,115,1.0,4.0,87,0.00,,,0.00,12,Wunderground v.1.15,2013-07-03 10:16:00,
2013-07-03 06:17:00,73.0,68.9,30.21,SE,131,2.0,4.0,87,0.00,,,0.00,11,Wunderground v.1.15,2013-07-03 10:17:00,
2013-07-03 06:18:00,73.0,68.9,30.21,SE,138,2.0,4.0,87,0.00,,,0.00,11,Wunderground v.1.15,2013-07-03 10:18:00,
2013-07-03 06:22:00,72.9,68.8,30.22,SE,138,2.0,2.0,87,0.00,,,0.00,14,Wunderground v.1.15,2013-07-03 10:22:00,
2013-07-03 06:23:00,72.9,68.8,30.22,SE,138,2.0,2.0,87,0.00,,,0.00,14,Wunderground v.1.15,2013-07-03 10:23:00,
2013-07-03 06:26:00,72.9,68.8,30.22,SE,138,2.0,2.0,87,0.00,,,0.00,19,Wunderground v.1.15,2013-07-03 10:26:00,
2013-07-03 06:27:00,72.9,68.8,30.22,SE,138,2.0,2.0,87,0.00,,,0.00,19,Wunderground v.1.15,2013-07-03 10:27:00,
2013-07-03 06:29:00,72.9,68.8,30.22,SE,138,1.0,2.0,87,0.00,,,0.00,19,Wunderground v.1.15,2013-07-03 10:29:00,
2013-07-03 06:31:00,72.8,68.7,30.22,SE,138,1.0,1.0,87,0.00,,,0.00,19,Wunderground v.1.15,2013-07-03 10:31:00,
2013-07-03 06:33:00,72.9,68.8,30.22,SE,134,1.0,4.0,87,0.00,,,0.00,18,Wunderground v.1.15,2013-07-03 10:33:00,
2013-07-03 06:36:00,72.9,68.8,30.22,SE,140,1.0,4.0,87,0.00,,,0.00,18,Wunderground v.1.15,2013-07-03 10:36:00,
2013-07-03 06:41:00,72.9,68.8,30.22,ESE,108,1.0,1.0,87,0.00,,,0.00,21,Wunderground v.1.15,2013-07-03 10:41:00,
2013-07-03 06:42:00,72.9,68.8,30.22,ESE,108,1.0,1.0,87,0.00,,,0.00,25,Wunderground v.1.15,2013-07-03 10:42:00,
2013-07-03 06:44:00,73.0,68.9,30.22,SE,135,1.0,4.0,87,0.00,,,0.00,28,Wunderground v.1.15,2013-07-03 10:44:00,
2013-07-03 06:47:00,73.0,68.9,30.22,SE,128,1.0,4.0,87,0.00,,,0.00,23,Wunderground v.1.15,2013-07-03 10:47:00,
2013-07-03 06:48:00,73.0,68.9,30.22,SE,128,2.0,4.0,87,0.00,,,0.00,19,Wunderground v.1.15,2013-07-03 10:48:00,
2013-07-03 06:50:00,73.0,68.9,30.22,SE,128,1.0,4.0,87,0.00,,,0.00,19,Wunderground v.1.15,2013-07-03 10:50:00,
2013-07-03 06:52:00,73.1,69.0,30.22,ESE,108,2.0,4.0,87,0.00,,,0.00,21,Wunderground v.1.15,2013-07-03 10:52:00,
2013-07-03 06:53:00,73.1,69.0,30.22,South,178,2.0,4.0,87,0.00,,,0.00,21,Wunderground v.1.15,2013-07-03 10:53:00,
2013-07-03 06:55:00,73.1,69.0,30.22,SE,135,2.0,4.0,87,0.00,,,0.00,23,Wunderground v.1.15,2013-07-03 10:55:00,
2013-07-03 06:56:00,73.1,69.0,30.22,SE,128,2.0,4.0,87,0.00,,,0.00,25,Wunderground v.1.15,2013-07-03 10:56:00,
2013-07-03 06:58:00,73.1,69.0,30.22,SE,135,2.0,4.0,87,0.00,,,0.00,25,Wunderground v.1.15,2013-07-03 10:58:00,
2013-07-03 06:59:00,73.1,69.0,30.22,SE,126,2.0,4.0,87,0.00,,,0.00,25,Wunderground v.1.15,2013-07-03 10:59:00,
2013-07-03 07:00:00,73.1,69.0,30.22,SE,145,2.0,2.0,87,0.00,,,0.00,28,Wunderground v.1.15,2013-07-03 11:00:00,
2013-07-03 07:05:00,73.2,69.4,30.22,SE,132,2.0,3.0,88,0.00,,,0.00,32,Wunderground v.1.15,2013-07-03 11:05:00,
2013-07-03 07:06:00,73.3,69.2,30.22,ESE,122,2.0,3.0,87,0.00,,,0.00,30,Wunderground v.1.15,2013-07-03 11:06:00,
2013-07-03 07:07:00,73.3,69.2,30.22,ESE,122,2.0,3.0,87,0.00,,,0.00,28,Wunderground v.1.15,2013-07-03 11:07:00,
2013-07-03 07:08:00,73.3,69.2,30.22,SE,128,2.0,3.0,87,0.00,,,0.00,28,Wunderground v.1.15,2013-07-03 11:08:00,
2013-07-03 07:09:00,73.3,69.2,30.22,ESE,110,2.0,3.0,87,0.00,,,0.00,30,Wunderground v.1.15,2013-07-03 11:09:00,
2013-07-03 07:12:00,73.3,69.2,30.22,ESE,110,1.0,1.0,87,0.00,,,0.00,37,Wunderground v.1.15,2013-07-03 11:12:00,
2013-07-03 07:13:00,73.3,69.2,30.22,ESE,110,1.0,1.0,87,0.00,,,0.00,40,Wunderground v.1.15,2013-07-03 11:13:00,
2013-07-03 07:15:00,73.3,69.2,30.22,SE,144,1.0,1.0,87,0.00,,,0.00,47,Wunderground v.1.15,2013-07-03 11:15:00,
2013-07-03 07:16:00,73.3,69.2,30.22,ESE,120,1.0,2.0,87,0.00,,,0.00,49,Wunderground v.1.15,2013-07-03 11:16:00,
2013-07-03 07:18:00,73.4,69.3,30.22,SSE,147,1.0,4.0,87,0.00,,,0.00,56,Wunderground v.1.15,2013-07-03 11:18:00,
2013-07-03 07:20:00,73.4,69.3,30.22,SSE,147,1.0,1.0,87,0.00,,,0.00,49,Wunderground v.1.15,2013-07-03 11:20:00,
2013-07-03 07:21:00,73.4,69.3,30.23,SE,128,1.0,1.0,87,0.00,,,0.00,49,Wunderground v.1.15,2013-07-03 11:21:00,
2013-07-03 07:23:00,73.4,69.3,30.23,SSE,150,2.0,2.0,87,0.00,,,0.00,53,Wunderground v.1.15,2013-07-03 11:23:00,
2013-07-03 07:24:00,73.4,69.3,30.23,ESE,110,2.0,2.0,87,0.00,,,0.00,56,Wunderground v.1.15,2013-07-03 11:24:00,
2013-07-03 07:26:00,73.4,69.3,30.23,SE,134,2.0,2.0,87,0.00,,,0.00,63,Wunderground v.1.15,2013-07-03 11:26:00,
2013-07-03 07:28:00,73.5,69.4,30.23,ESE,112,2.0,4.0,87,0.00,,,0.00,69,Wunderground v.1.15,2013-07-03 11:28:00,
2013-07-03 07:33:00,73.6,69.5,30.23,SSE,155,2.0,4.0,87,0.00,,,0.00,46,Wunderground v.1.15,2013-07-03 11:33:00,
2013-07-03 07:34:00,73.6,69.5,30.23,SSE,163,2.0,4.0,87,0.00,,,0.00,44,Wunderground v.1.15,2013-07-03 11:34:00,
2013-07-03 07:35:00,73.6,69.5,30.23,SSE,163,2.0,4.0,87,0.00,,,0.00,47,Wunderground v.1.15,2013-07-03 11:35:00,
2013-07-03 07:40:00,73.6,69.5,30.23,SE,128,2.0,4.0,87,0.00,,,0.00,44,Wunderground v.1.15,2013-07-03 11:40:00,
2013-07-03 07:44:00,73.7,69.6,30.23,ESE,119,3.0,6.0,87,0.00,,,0.00,76,Wunderground v.1.15,2013-07-03 11:44:00,
2013-07-03 07:45:00,73.7,69.6,30.23,SE,124,3.0,6.0,87,0.00,,,0.00,86,Wunderground v.1.15,2013-07-03 11:45:00,
2013-07-03 07:46:00,73.7,69.6,30.23,SSE,168,3.0,6.0,87,0.00,,,0.00,102,Wunderground v.1.15,2013-07-03 11:46:00,
2013-07-03 07:50:00,73.7,69.6,30.23,SE,128,3.0,3.0,87,0.00,,,0.00,114,Wunderground v.1.15,2013-07-03 11:50:00,
2013-07-03 07:51:00,73.8,69.7,30.23,SE,128,3.0,3.0,87,0.00,,,0.00,113,Wunderground v.1.15,2013-07-03 11:51:00,
2013-07-03 07:52:00,73.8,69.7,30.23,ESE,115,3.0,3.0,87,0.00,,,0.00,111,Wunderground v.1.15,2013-07-03 11:52:00,
2013-07-03 07:53:00,73.8,69.7,30.24,SE,128,2.0,5.0,87,0.00,,,0.00,111,Wunderground v.1.15,2013-07-03 11:53:00,
2013-07-03 07:56:00,73.9,69.4,30.24,SSE,161,3.0,5.0,86,0.00,,,0.00,102,Wunderground v.1.15,2013-07-03 11:56:00,
2013-07-03 07:58:00,73.9,69.8,30.23,SE,143,3.0,5.0,87,0.00,,,0.00,104,Wunderground v.1.15,2013-07-03 11:58:00,
2013-07-03 07:59:00,73.9,69.8,30.24,SSE,148,3.0,5.0,87,0.00,,,0.00,104,Wunderground v.1.15,2013-07-03 11:59:00,
2013-07-03 08:00:00,73.9,69.8,30.24,ESE,119,3.0,4.0,87,0.00,,,0.00,102,Wunderground v.1.15,2013-07-03 12:00:00,
2013-07-03 08:05:00,73.9,69.8,30.24,SE,126,3.0,5.0,87,0.00,,,0.00,127,Wunderground v.1.15,2013-07-03 12:05:00,
2013-07-03 08:06:00,73.9,69.8,30.24,SE,126,3.0,5.0,87,0.00,,,0.00,132,Wunderground v.1.15,2013-07-03 12:06:00,
2013-07-03 08:07:00,73.9,69.8,30.24,WNW,301,3.0,5.0,87,0.00,,,0.00,132,Wunderground v.1.15,2013-07-03 12:07:00,
2013-07-03 08:10:00,74.0,69.9,30.24,ESE,113,3.0,4.0,87,0.00,,,0.00,132,Wunderground v.1.15,2013-07-03 12:10:00,
2013-07-03 08:11:00,74.0,69.9,30.24,SE,130,3.0,4.0,87,0.00,,,0.00,134,Wunderground v.1.15,2013-07-03 12:11:00,
2013-07-03 08:12:00,74.0,69.9,30.24,NW,309,3.0,4.0,87,0.00,,,0.00,127,Wunderground v.1.15,2013-07-03 12:12:00,
2013-07-03 08:13:00,74.0,69.9,30.24,West,275,2.0,4.0,87,0.00,,,0.00,125,Wunderground v.1.15,2013-07-03 12:13:00,
2013-07-03 08:16:00,74.1,70.0,30.24,NE,55,2.0,4.0,87,0.00,,,0.00,118,Wunderground v.1.15,2013-07-03 12:16:00,
2013-07-03 08:17:00,74.1,70.0,30.24,ESE,121,2.0,4.0,87,0.00,,,0.00,109,Wunderground v.1.15,2013-07-03 12:17:00,
2013-07-03 08:20:00,74.2,69.7,30.24,ESE,110,2.0,2.0,86,0.00,,,0.00,98,Wunderground v.1.15,2013-07-03 12:20:00,
2013-07-03 08:21:00,74.2,69.7,30.24,SE,126,2.0,6.0,86,0.00,,,0.00,102,Wunderground v.1.15,2013-07-03 12:21:00,
2013-07-03 08:22:00,74.2,69.7,30.24,SE,130,3.0,6.0,86,0.00,,,0.00,102,Wunderground v.1.15,2013-07-03 12:22:00,
2013-07-03 08:27:00,74.1,69.6,30.24,East,96,3.0,6.0,86,0.00,,,0.00,93,Wunderground v.1.15,2013-07-03 12:27:00,
2013-07-03 08:28:00,74.1,69.6,30.24,East,98,4.0,6.0,86,0.00,,,0.00,91,Wunderground v.1.15,2013-07-03 12:28:00,
2013-07-03 08:30:00,74.1,70.0,30.24,ESE,117,3.0,3.0,87,0.00,,,0.00,95,Wunderground v.1.15,2013-07-03 12:30:00,
2013-07-03 08:32:00,74.2,70.1,30.25,South,178,2.0,3.0,87,0.00,,,0.00,81,Wunderground v.1.15,2013-07-03 12:32:00,
2013-07-03 08:34:00,74.2,70.1,30.25,West,281,1.0,3.0,87,0.00,,,0.00,104,Wunderground v.1.15,2013-07-03 12:34:00,
2013-07-03 08:35:00,74.2,70.1,30.25,West,281,1.0,3.0,87,0.00,,,0.00,104,Wunderground v.1.15,2013-07-03 12:35:00,
2013-07-03 08:40:00,74.3,70.2,30.25,SSE,151,1.0,1.0,87,0.00,,,0.00,155,Wunderground v.1.15,2013-07-03 12:40:00,
2013-07-03 08:41:00,74.3,69.8,30.25,SSE,151,1.0,1.0,86,0.00,,,0.00,153,Wunderground v.1.15,2013-07-03 12:41:00,
2013-07-03 08:44:00,74.4,70.3,30.25,SE,144,1.0,5.0,87,0.00,,,0.00,146,Wunderground v.1.15,2013-07-03 12:44:00,
2013-07-03 08:46:00,74.5,70.0,30.25,ESE,121,2.0,5.0,86,0.00,,,0.00,167,Wunderground v.1.15,2013-07-03 12:46:00,
2013-07-03 08:48:00,74.5,70.0,30.25,ESE,117,2.0,5.0,86,0.00,,,0.00,174,Wunderground v.1.15,2013-07-03 12:48:00,
2013-07-03 08:52:00,74.5,70.0,30.25,ESE,108,3.0,6.0,86,0.00,,,0.00,181,Wunderground v.1.15,2013-07-03 12:52:00,
2013-07-03 08:54:00,74.5,70.0,30.25,SSE,156,4.0,6.0,86,0.00,,,0.00,158,Wunderground v.1.15,2013-07-03 12:54:00,
2013-07-03 08:55:00,74.5,70.0,30.25,SSE,151,4.0,6.0,86,0.00,,,0.00,144,Wunderground v.1.15,2013-07-03 12:55:00,
2013-07-03 08:57:00,74.5,70.0,30.25,East,85,4.0,6.0,86,0.00,,,0.00,102,Wunderground v.1.15,2013-07-03 12:57:00,
2013-07-03 08:59:00,74.5,70.0,30.25,SE,142,3.0,6.0,86,0.00,,,0.00,86,Wunderground v.1.15,2013-07-03 12:59:00,
2013-07-03 09:02:00,74.6,70.1,30.25,SSW,202,3.0,3.0,86,0.00,,,0.00,86,Wunderground v.1.15,2013-07-03 13:02:00,
2013-07-03 09:03:00,74.6,70.1,30.25,ESE,117,2.0,5.0,86,0.00,,,0.00,86,Wunderground v.1.15,2013-07-03 13:03:00,
2013-07-03 09:05:00,74.6,70.1,30.25,ESE,119,2.0,6.0,86,0.00,,,0.00,90,Wunderground v.1.15,2013-07-03 13:05:00,
2013-07-03 09:07:00,74.6,70.1,30.25,ENE,60,2.0,6.0,86,0.00,,,0.00,93,Wunderground v.1.15,2013-07-03 13:07:00,
2013-07-03 09:08:00,74.6,70.1,30.25,ESE,108,2.0,6.0,86,0.00,,,0.00,100,Wunderground v.1.15,2013-07-03 13:08:00,
2013-07-03 09:10:00,74.7,70.2,30.25,WNW,292,2.0,2.0,86,0.00,,,0.00,120,Wunderground v.1.15,2013-07-03 13:10:00,
2013-07-03 09:12:00,74.7,70.2,30.25,SE,143,2.0,2.0,86,0.00,,,0.00,113,Wunderground v.1.15,2013-07-03 13:12:00,
2013-07-03 09:14:00,74.8,70.3,30.25,SE,143,2.0,2.0,86,0.00,,,0.00,114,Wunderground v.1.15,2013-07-03 13:14:00,
2013-07-03 09:15:00,74.8,70.3,30.25,ESE,102,2.0,6.0,86,0.00,,,0.00,118,Wunderground v.1.15,2013-07-03 13:15:00,
2013-07-03 09:16:00,74.8,70.0,30.25,SSE,147,2.0,6.0,85,0.00,,,0.00,118,Wunderground v.1.15,2013-07-03 13:16:00,
2013-07-03 09:19:00,74.8,70.3,30.25,ESE,112,2.0,6.0,86,0.00,,,0.00,165,Wunderground v.1.15,2013-07-03 13:19:00,
2013-07-03 09:21:00,74.8,70.3,30.25,ESE,117,2.0,5.0,86,0.00,,,0.00,204,Wunderground v.1.15,2013-07-03 13:21:00,
2013-07-03 09:22:00,74.7,70.2,30.25,SE,146,2.0,5.0,86,0.00,,,0.00,236,Wunderground v.1.15,2013-07-03 13:22:00,
2013-07-03 09:25:00,74.7,70.6,30.25,ESE,114,3.0,5.0,87,0.00,,,0.00,308,Wunderground v.1.15,2013-07-03 13:25:00,
2013-07-03 09:27:00,74.7,70.6,30.25,East,98,3.0,5.0,87,0.00,,,0.00,302,Wunderground v.1.15,2013-07-03 13:27:00,
2013-07-03 09:29:00,74.7,70.6,30.25,SE,136,2.0,5.0,87,0.00,,,0.00,283,Wunderground v.1.15,2013-07-03 13:29:00,
2013-07-03 09:31:00,74.8,70.7,30.25,SSE,167,2.0,2.0,87,0.00,,,0.00,248,Wunderground v.1.15,2013-07-03 13:31:00,
2013-07-03 09:34:00,74.8,70.7,30.25,ESE,115,1.0,5.0,87,0.00,,,0.00,181,Wunderground v.1.15,2013-07-03 13:34:00,
2013-07-03 09:36:00,74.8,70.0,30.25,ESE,118,2.0,6.0,85,0.00,,,0.00,167,Wunderground v.1.15,2013-07-03 13:36:00,
2013-07-03 09:37:00,74.7,69.9,30.25,SE,124,3.0,6.0,85,0.00,,,0.00,171,Wunderground v.1.15,2013-07-03 13:37:00,
2013-07-03 09:41:00,74.6,70.1,30.25,SE,126,4.0,6.0,86,0.00,,,0.00,269,Wunderground v.1.15,2013-07-03 13:41:00,
2013-07-03 09:43:00,74.6,70.1,30.25,SSE,155,4.0,6.0,86,0.00,,,0.00,322,Wunderground v.1.15,2013-07-03 13:43:00,
2013-07-03 09:46:00,74.6,70.1,30.25,SE,124,4.0,6.0,86,0.00,,,0.00,487,Wunderground v.1.15,2013-07-03 13:46:00,
2013-07-03 09:49:00,74.8,70.7,30.25,SE,133,3.0,7.0,87,0.00,,,0.00,490,Wunderground v.1.15,2013-07-03 13:49:00,
2013-07-03 09:51:00,74.9,70.8,30.25,SE,124,3.0,3.0,87,0.00,,,0.00,464,Wunderground v.1.15,2013-07-03 13:51:00,
2013-07-03 09:52:00,74.9,70.4,30.25,SE,138,3.0,4.0,86,0.00,,,0.00,443,Wunderground v.1.15,2013-07-03 13:52:00,
2013-07-03 09:54:00,75.0,70.9,30.25,SSE,155,3.0,5.0,87,0.00,,,0.00,397,Wunderground v.1.15,2013-07-03 13:54:00,
2013-07-03 09:58:00,75.2,70.4,30.25,SE,133,3.0,5.0,85,0.00,,,0.00,295,Wunderground v.1.15,2013-07-03 13:58:00,
2013-07-03 09:59:00,75.3,70.5,30.25,SSE,149,2.0,5.0,85,0.00,,,0.00,287,Wunderground v.1.15,2013-07-03 13:59:00,
2013-07-03 10:00:00,75.3,70.5,30.25,SE,144,2.0,2.0,85,0.00,,,0.00,279,Wunderground v.1.15,2013-07-03 14:00:00,
2013-07-03 10:05:00,75.5,70.7,30.25,SSE,155,2.0,6.0,85,0.00,,,0.00,290,Wunderground v.1.15,2013-07-03 14:05:00,
2013-07-03 10:06:00,75.6,70.8,30.25,SE,141,2.0,6.0,85,0.00,,,0.00,350,Wunderground v.1.15,2013-07-03 14:06:00,
2013-07-03 10:07:00,75.6,70.8,30.25,East,101,2.0,6.0,85,0.00,,,0.00,360,Wunderground v.1.15,2013-07-03 14:07:00,
2013-07-03 10:09:00,75.7,70.5,30.25,ESE,123,2.0,6.0,84,0.00,,,0.00,223,Wunderground v.1.15,2013-07-03 14:09:00,
2013-07-03 10:11:00,75.7,70.5,30.25,ESE,102,3.0,5.0,84,0.00,,,0.00,246,Wunderground v.1.15,2013-07-03 14:11:00,
2013-07-03 10:12:00,75.7,70.5,30.25,SSE,157,3.0,5.0,84,0.00,,,0.00,274,Wunderground v.1.15,2013-07-03 14:12:00,
2013-07-03 10:17:00,75.7,70.9,30.25,South,186,2.0,5.0,85,0.00,,,0.00,234,Wunderground v.1.15,2013-07-03 14:17:00,
2013-07-03 10:20:00,75.9,71.1,30.25,West,277,1.0,2.0,85,0.00,,,0.00,155,Wunderground v.1.15,2013-07-03 14:20:00,
2013-07-03 10:21:00,75.9,71.1,30.25,West,277,1.0,2.0,85,0.00,,,0.00,149,Wunderground v.1.15,2013-07-03 14:21:00,
2013-07-03 10:23:00,75.8,70.6,30.25,West,281,1.0,2.0,84,0.00,,,0.00,151,Wunderground v.1.15,2013-07-03 14:23:00,
2013-07-03 10:26:00,75.8,70.6,30.25,WNW,282,1.0,2.0,84,0.00,,,0.00,202,Wunderground v.1.15,2013-07-03 14:26:00,
2013-07-03 10:28:00,75.9,70.7,30.25,WNW,282,1.0,2.0,84,0.00,,,0.00,181,Wunderground v.1.15,2013-07-03 14:28:00,
2013-07-03 10:31:00,76.0,70.8,30.25,WNW,282,1.0,1.0,84,0.00,,,0.00,213,Wunderground v.1.15,2013-07-03 14:31:00,
2013-07-03 10:34:00,76.1,70.6,30.25,SE,130,1.0,4.0,83,0.00,,,0.00,318,Wunderground v.1.15,2013-07-03 14:34:00,
2013-07-03 10:36:00,76.2,70.7,30.25,South,174,1.0,4.0,83,0.00,,,0.00,338,Wunderground v.1.15,2013-07-03 14:36:00,
2013-07-03 10:38:00,76.3,71.1,30.25,SSE,162,1.0,4.0,84,0.00,,,0.00,360,Wunderground v.1.15,2013-07-03 14:38:00,
2013-07-03 10:39:00,76.5,71.3,30.25,SSE,161,1.0,5.0,84,0.00,,,0.00,334,Wunderground v.1.15,2013-07-03 14:39:00,
2013-07-03 10:41:00,76.6,70.7,30.25,SE,126,2.0,2.0,82,0.00,,,0.00,318,Wunderground v.1.15,2013-07-03 14:41:00,
2013-07-03 10:43:00,76.7,70.8,30.25,SE,139,2.0,4.0,82,0.00,,,0.00,315,Wunderground v.1.15,2013-07-03 14:43:00,
2013-07-03 10:44:00,76.7,70.8,30.25,ESE,117,3.0,4.0,82,0.00,,,0.00,329,Wunderground v.1.15,2013-07-03 14:44:00,
2013-07-03 10:49:00,76.8,70.5,30.25,SE,124,4.0,6.0,81,0.00,,,0.00,366,Wunderground v.1.15,2013-07-03 14:49:00,
2013-07-03 10:50:00,76.9,70.6,30.25,ESE,113,4.0,4.0,81,0.00,,,0.00,366,Wunderground v.1.15,2013-07-03 14:50:00,
2013-07-03 10:51:00,76.9,71.0,30.25,SE,128,4.0,4.0,82,0.00,,,0.00,362,Wunderground v.1.15,2013-07-03 14:51:00,
2013-07-03 10:52:00,76.9,70.6,30.25,ESE,116,4.0,4.0,81,0.00,,,0.00,362,Wunderground v.1.15,2013-07-03 14:52:00,
2013-07-03 10:57:00,77.1,70.8,30.25,WSW,242,3.0,5.0,81,0.00,,,0.00,332,Wunderground v.1.15,2013-07-03 14:57:00,
2013-07-03 10:58:00,77.2,70.9,30.26,WNW,284,3.0,5.0,81,0.00,,,0.00,322,Wunderground v.1.15,2013-07-03 14:58:00,
2013-07-03 10:59:00,77.3,70.6,30.26,WSW,240,2.0,5.0,80,0.00,,,0.00,309,Wunderground v.1.15,2013-07-03 14:59:00,
2013-07-03 11:05:00,77.5,70.8,30.25,SE,126,2.0,6.0,80,0.00,,,0.00,302,Wunderground v.1.15,2013-07-03 15:05:00,
2013-07-03 11:06:00,77.5,70.8,30.25,SE,133,2.0,6.0,80,0.00,,,0.00,302,Wunderground v.1.15,2013-07-03 15:06:00,
2013-07-03 11:07:00,77.5,70.5,30.25,SE,141,3.0,6.0,79,0.74,,,0.02,309,Wunderground v.1.15,2013-07-03 15:07:00,
2013-07-03 11:09:00,77.5,71.2,30.25,SE,128,3.0,6.0,81,0.22,,,0.02,311,Wunderground v.1.15,2013-07-03 15:09:00,
2013-07-03 11:11:00,77.4,70.4,30.25,SSE,163,4.0,4.0,79,0.12,,,0.02,302,Wunderground v.1.15,2013-07-03 15:11:00,
2013-07-03 11:13:00,77.5,70.8,30.25,SSE,147,4.0,6.0,80,0.09,,,0.02,302,Wunderground v.1.15,2013-07-03 15:13:00,
2013-07-03 11:16:00,77.4,70.4,30.26,East,94,4.0,6.0,79,0.06,,,0.02,274,Wunderground v.1.15,2013-07-03 15:16:00,
2013-07-03 11:17:00,77.5,70.8,30.26,SE,131,4.0,6.0,80,0.06,,,0.02,244,Wunderground v.1.15,2013-07-03 15:17:00,
2013-07-03 11:20:00,77.6,70.9,30.25,SE,137,4.0,4.0,80,0.04,,,0.02,274,Wunderground v.1.15,2013-07-03 15:20:00,
2013-07-03 11:21:00,77.7,70.7,30.25,SE,124,3.0,5.0,79,0.04,,,0.02,290,Wunderground v.1.15,2013-07-03 15:21:00,
2013-07-03 11:22:00,77.7,70.7,30.25,SE,135,3.0,7.0,79,0.04,,,0.02,297,Wunderground v.1.15,2013-07-03 15:22:00,
2013-07-03 11:26:00,77.7,70.7,30.25,SE,132,3.0,7.0,79,0.00,,,0.02,279,Wunderground v.1.15,2013-07-03 15:26:00,
2013-07-03 11:29:00,77.6,70.6,30.25,East,99,4.0,7.0,79,0.00,,,0.02,281,Wunderground v.1.15,2013-07-03 15:29:00,
2013-07-03 11:30:00,77.6,70.6,30.25,SSE,165,4.0,4.0,79,0.00,,,0.02,251,Wunderground v.1.15,2013-07-03 15:30:00,
2013-07-03 11:35:00,77.7,71.0,30.25,ESE,111,4.0,7.0,80,0.00,,,0.02,211,Wunderground v.1.15,2013-07-03 15:35:00,
2013-07-03 11:36:00,77.7,70.7,30.25,ESE,117,4.0,7.0,79,0.00,,,0.02,232,Wunderground v.1.15,2013-07-03 15:36:00,
2013-07-03 11:38:00,77.6,70.6,30.25,SE,141,4.0,7.0,79,0.00,,,0.02,227,Wunderground v.1.15,2013-07-03 15:38:00,
2013-07-03 11:44:00,77.6,70.6,30.25,SE,141,4.0,6.0,79,0.00,,,0.02,257,Wunderground v.1.15,2013-07-03 15:44:00,
2013-07-03 11:45:00,77.6,70.9,30.25,NW,306,4.0,6.0,80,0.00,,,0.02,272,Wunderground v.1.15,2013-07-03 15:45:00,
2013-07-03 11:46:00,77.7,70.7,30.25,SE,139,4.0,6.0,79,0.00,,,0.02,246,Wunderground v.1.15,2013-07-03 15:46:00,
2013-07-03 11:50:00,77.8,70.4,30.25,SSE,160,4.0,6.0,78,0.00,,,0.02,255,Wunderground v.1.15,2013-07-03 15:50:00,
2013-07-03 11:52:00,77.8,70.8,30.25,SE,135,4.0,6.0,79,0.00,,,0.02,248,Wunderground v.1.15,2013-07-03 15:52:00,
2013-07-03 11:53:00,77.8,70.8,30.25,South,186,4.0,6.0,79,0.00,,,0.02,260,Wunderground v.1.15,2013-07-03 15:53:00,
2013-07-03 11:54:00,77.8,70.8,30.25,SE,142,4.0,6.0,79,0.00,,,0.02,297,Wunderground v.1.15,2013-07-03 15:54:00,
2013-07-03 11:55:00,77.8,70.8,30.25,SE,134,4.0,6.0,79,0.00,,,0.02,318,Wunderground v.1.15,2013-07-03 15:55:00,
2013-07-03 11:59:00,78.0,70.2,30.25,ESE,119,4.0,6.0,77,0.00,,,0.02,385,Wunderground v.1.15,2013-07-03 15:59:00,
2013-07-03 12:00:00,78.0,70.6,30.26,ESE,111,3.0,6.0,78,0.00,,,0.02,424,Wunderground v.1.15,2013-07-03 16:00:00,
2013-07-03 12:02:00,78.1,70.3,30.25,SE,129,4.0,6.0,77,0.00,,,0.02,492,Wunderground v.1.15,2013-07-03 16:02:00,
2013-07-03 12:04:00,78.1,70.3,30.25,SSE,159,4.0,8.0,77,0.00,,,0.02,408,Wunderground v.1.15,2013-07-03 16:04:00,
2013-07-03 12:05:00,78.1,70.7,30.25,SE,135,5.0,8.0,78,0.00,,,0.02,408,Wunderground v.1.15,2013-07-03 16:05:00,
2013-07-03 12:06:00,78.1,70.7,30.25,East,97,5.0,8.0,78,0.00,,,0.02,454,Wunderground v.1.15,2013-07-03 16:06:00,
2013-07-03 12:07:00,78.2,70.8,30.25,SSE,157,5.0,8.0,78,0.00,,,0.02,454,Wunderground v.1.15,2013-07-03 16:07:00,
2013-07-03 12:10:00,78.3,70.5,30.25,South,178,6.0,6.0,77,0.00,,,0.02,475,Wunderground v.1.15,2013-07-03 16:10:00,
2013-07-03 12:11:00,78.4,70.6,30.25,ESE,119,6.0,6.0,77,0.00,,,0.02,448,Wunderground v.1.15,2013-07-03 16:11:00,
2013-07-03 12:12:00,78.4,70.6,30.25,SE,132,6.0,6.0,77,0.00,,,0.02,411,Wunderground v.1.15,2013-07-03 16:12:00,
2013-07-03 12:13:00,78.4,70.6,30.25,ESE,123,6.0,6.0,77,0.00,,,0.02,410,Wunderground v.1.15,2013-07-03 16:13:00,
2013-07-03 12:16:00,78.5,70.7,30.25,SSE,148,5.0,6.0,77,0.00,,,0.02,531,Wunderground v.1.15,2013-07-03 16:16:00,
2013-07-03 12:20:00,78.8,71.0,30.25,SE,126,4.0,6.0,77,0.00,,,0.02,633,Wunderground v.1.15,2013-07-03 16:20:00,
2013-07-03 12:21:00,78.9,71.1,30.25,SE,132,4.0,6.0,77,0.00,,,0.02,547,Wunderground v.1.15,2013-07-03 16:21:00,
2013-07-03 12:23:00,79.0,71.2,30.25,ESE,121,3.0,6.0,77,0.00,,,0.02,417,Wunderground v.1.15,2013-07-03 16:23:00,
2013-07-03 12:26:00,79.1,71.3,30.25,SSE,148,4.0,6.0,77,0.00,,,0.02,418,Wunderground v.1.15,2013-07-03 16:26:00,
2013-07-03 12:27:00,79.1,70.9,30.25,SE,130,4.0,6.0,76,0.00,,,0.02,381,Wunderground v.1.15,2013-07-03 16:27:00,
2013-07-03 12:31:00,79.0,70.8,30.25,SE,146,4.0,5.0,76,0.00,,,0.02,325,Wunderground v.1.15,2013-07-03 16:31:00,
2013-07-03 12:32:00,79.0,70.8,30.25,SE,126,4.0,5.0,76,0.00,,,0.02,309,Wunderground v.1.15,2013-07-03 16:32:00,
2013-07-03 12:33:00,78.9,70.3,30.25,ESE,105,4.0,5.0,75,0.00,,,0.02,262,Wunderground v.1.15,2013-07-03 16:33:00,
2013-07-03 12:34:00,78.9,70.3,30.25,SE,146,4.0,5.0,75,0.00,,,0.02,260,Wunderground v.1.15,2013-07-03 16:34:00,
2013-07-03 12:38:00,78.8,70.6,30.24,ESE,118,3.0,5.0,76,0.00,,,0.02,417,Wunderground v.1.15,2013-07-03 16:38:00,
2013-07-03 12:40:00,78.9,70.7,30.24,NW,320,3.0,3.0,76,0.00,,,0.02,411,Wunderground v.1.15,2013-07-03 16:40:00,
2013-07-03 12:41:00,79.0,70.8,30.24,ESE,111,3.0,4.0,76,0.00,,,0.02,417,Wunderground v.1.15,2013-07-03 16:41:00,
2013-07-03 12:47:00,79.1,70.9,30.24,SSE,159,4.0,7.0,76,0.00,,,0.02,350,Wunderground v.1.15,2013-07-03 16:47:00,
2013-07-03 12:48:00,79.1,70.9,30.24,SE,132,4.0,7.0,76,0.00,,,0.02,355,Wunderground v.1.15,2013-07-03 16:48:00,
2013-07-03 12:49:00,79.1,70.9,30.24,ESE,104,4.0,7.0,76,0.00,,,0.02,373,Wunderground v.1.15,2013-07-03 16:49:00,
2013-07-03 12:53:00,79.4,71.6,30.24,ESE,123,4.0,4.0,77,0.00,,,0.02,601,Wunderground v.1.15,2013-07-03 16:53:00,
2013-07-03 12:54:00,79.4,71.2,30.24,SSE,161,4.0,4.0,76,0.00,,,0.02,346,Wunderground v.1.15,2013-07-03 16:54:00,
2013-07-03 12:55:00,79.5,70.9,30.24,SE,127,4.0,5.0,75,0.00,,,0.02,332,Wunderground v.1.15,2013-07-03 16:55:00,
2013-07-03 13:00:00,79.6,71.0,30.24,SE,130,3.0,5.0,75,0.00,,,0.02,367,Wunderground v.1.15,2013-07-03 17:00:00,
2013-07-03 13:02:00,79.6,71.4,30.24,SE,135,3.0,5.0,76,0.00,,,0.02,448,Wunderground v.1.15,2013-07-03 17:02:00,
2013-07-03 13:05:00,79.8,71.6,30.24,ESE,113,3.0,5.0,76,0.00,,,0.02,322,Wunderground v.1.15,2013-07-03 17:05:00,
2013-07-03 13:06:00,79.9,71.3,30.24,South,177,3.0,7.0,75,0.00,,,0.02,311,Wunderground v.1.15,2013-07-03 17:06:00,
2013-07-03 13:07:00,79.9,70.9,30.23,SE,125,3.0,7.0,74,0.00,,,0.02,292,Wunderground v.1.15,2013-07-03 17:07:00,
2013-07-03 13:09:00,79.8,70.8,30.24,ESE,120,4.0,7.0,74,0.00,,,0.02,202,Wunderground v.1.15,2013-07-03 17:09:00,
2013-07-03 13:13:00,79.7,70.7,30.24,SSE,159,4.0,8.0,74,0.00,,,0.02,244,Wunderground v.1.15,2013-07-03 17:13:00,
2013-07-03 13:17:00,79.6,70.6,30.23,ESE,123,4.0,8.0,74,0.00,,,0.02,573,Wunderground v.1.15,2013-07-03 17:17:00,
2013-07-03 13:21:00,79.8,70.8,30.24,SE,128,4.0,6.0,74,0.00,,,0.02,434,Wunderground v.1.15,2013-07-03 17:21:00,
2013-07-03 13:22:00,79.9,70.9,30.24,SE,145,4.0,6.0,74,0.00,,,0.02,446,Wunderground v.1.15,2013-07-03 17:22:00,
2013-07-03 13:24:00,79.9,70.9,30.24,SE,128,4.0,7.0,74,0.00,,,0.02,559,Wunderground v.1.15,2013-07-03 17:24:00,
2013-07-03 13:28:00,80.0,71.0,30.23,ESE,122,5.0,7.0,74,0.00,,,0.02,710,Wunderground v.1.15,2013-07-03 17:28:00,
2013-07-03 13:30:00,80.1,71.1,30.23,SE,146,4.0,5.0,74,0.00,,,0.02,492,Wunderground v.1.15,2013-07-03 17:30:00,
2013-07-03 13:31:00,80.2,71.2,30.23,SE,136,5.0,5.0,74,0.00,,,0.02,475,Wunderground v.1.15,2013-07-03 17:31:00,
2013-07-03 13:36:00,80.0,70.6,30.23,East,99,5.0,5.0,73,0.00,,,0.02,534,Wunderground v.1.15,2013-07-03 17:36:00,
2013-07-03 13:38:00,79.9,70.9,30.23,SE,128,5.0,6.0,74,0.00,,,0.02,471,Wunderground v.1.15,2013-07-03 17:38:00,
2013-07-03 13:41:00,79.7,70.7,30.23,ESE,103,5.0,7.0,74,0.00,,,0.02,485,Wunderground v.1.15,2013-07-03 17:41:00,
2013-07-03 13:42:00,79.7,70.7,30.23,SSE,162,5.0,7.0,74,0.00,,,0.02,512,Wunderground v.1.15,2013-07-03 17:42:00,
2013-07-03 13:44:00,79.7,70.7,30.23,SE,128,5.0,8.0,74,0.00,,,0.02,496,Wunderground v.1.15,2013-07-03 17:44:00,
2013-07-03 13:48:00,79.6,70.6,30.23,ESE,120,6.0,8.0,74,0.00,,,0.02,392,Wunderground v.1.15,2013-07-03 17:48:00,
2013-07-03 13:49:00,79.6,71.0,30.23,ENE,74,5.0,8.0,75,0.00,,,0.02,390,Wunderground v.1.15,2013-07-03 17:49:00,
2013-07-03 13:50:00,79.6,70.6,30.23,ESE,117,5.0,8.0,74,0.00,,,0.02,404,Wunderground v.1.15,2013-07-03 17:50:00,
2013-07-03 13:53:00,79.6,70.6,30.23,SE,130,6.0,8.0,74,0.00,,,0.02,580,Wunderground v.1.15,2013-07-03 17:53:00,
2013-07-03 13:56:00,79.6,70.6,30.23,SSE,150,6.0,8.0,74,0.00,,,0.02,503,Wunderground v.1.15,2013-07-03 17:56:00,
2013-07-03 13:58:00,79.7,70.7,30.23,East,87,5.0,8.0,74,0.00,,,0.02,390,Wunderground v.1.15,2013-07-03 17:58:00,
2013-07-03 14:01:00,79.8,71.6,30.23,West,263,5.0,6.0,76,0.00,,,0.02,380,Wunderground v.1.15,2013-07-03 18:01:00,
2013-07-03 14:02:00,79.8,71.2,30.23,SE,138,5.0,6.0,75,0.00,,,0.02,443,Wunderground v.1.15,2013-07-03 18:02:00,
2013-07-03 14:05:00,79.9,71.7,30.23,SE,140,4.0,6.0,76,0.00,,,0.02,526,Wunderground v.1.15,2013-07-03 18:05:00,
2013-07-03 14:06:00,80.0,71.0,30.23,SE,139,4.0,6.0,74,0.00,,,0.02,526,Wunderground v.1.15,2013-07-03 18:06:00,
2013-07-03 14:08:00,80.2,72.3,30.23,WNW,298,4.0,6.0,77,0.00,,,0.02,485,Wunderground v.1.15,2013-07-03 18:08:00,
2013-07-03 14:11:00,80.4,70.9,30.23,SE,124,3.0,6.0,73,0.00,,,0.02,610,Wunderground v.1.15,2013-07-03 18:11:00,
2013-07-03 14:12:00,80.4,70.9,30.23,ESE,119,4.0,7.0,73,0.00,,,0.02,610,Wunderground v.1.15,2013-07-03 18:12:00,
2013-07-03 14:14:00,80.3,71.3,30.23,SE,134,4.0,7.0,74,0.00,,,0.02,404,Wunderground v.1.15,2013-07-03 18:14:00,
2013-07-03 14:18:00,80.2,71.6,30.23,SSE,153,5.0,7.0,75,0.00,,,0.02,506,Wunderground v.1.15,2013-07-03 18:18:00,
2013-07-03 14:19:00,80.2,71.6,30.23,ESE,123,5.0,7.0,75,0.00,,,0.02,506,Wunderground v.1.15,2013-07-03 18:19:00,
2013-07-03 14:21:00,80.2,71.2,30.23,East,101,5.0,5.0,74,0.00,,,0.02,719,Wunderground v.1.15,2013-07-03 18:21:00,
2013-07-03 14:23:00,80.3,72.0,30.23,SE,144,4.0,6.0,76,0.00,,,0.02,455,Wunderground v.1.15,2013-07-03 18:23:00,
2013-07-03 14:25:00,80.3,71.6,30.23,SE,142,4.0,7.0,75,0.00,,,0.02,380,Wunderground v.1.15,2013-07-03 18:25:00,
2013-07-03 14:27:00,80.3,71.3,30.23,SE,142,4.0,7.0,74,0.00,,,0.02,420,Wunderground v.1.15,2013-07-03 18:27:00,
2013-07-03 14:30:00,80.3,71.6,30.23,SE,134,4.0,4.0,75,0.00,,,0.02,454,Wunderground v.1.15,2013-07-03 18:30:00,
2013-07-03 14:31:00,80.3,71.6,30.23,SSW,211,4.0,4.0,75,0.00,,,0.02,446,Wunderground v.1.15,2013-07-03 18:31:00,
2013-07-03 14:33:00,80.3,71.6,30.22,SE,132,4.0,6.0,75,0.00,,,0.02,406,Wunderground v.1.15,2013-07-03 18:33:00,
2013-07-03 14:34:00,80.4,71.3,30.22,SE,127,4.0,10.0,74,0.00,,,0.02,385,Wunderground v.1.15,2013-07-03 18:34:00,
2013-07-03 14:36:00,80.3,71.6,30.23,ESE,121,4.0,10.0,75,0.00,,,0.02,418,Wunderground v.1.15,2013-07-03 18:36:00,
2013-07-03 14:38:00,80.3,71.3,30.22,SE,140,4.0,10.0,74,0.00,,,0.02,443,Wunderground v.1.15,2013-07-03 18:38:00,
2013-07-03 14:43:00,80.4,70.9,30.22,SE,126,4.0,4.0,73,0.00,,,0.02,415,Wunderground v.1.15,2013-07-03 18:43:00,
2013-07-03 14:45:00,80.5,71.4,30.22,SSE,163,3.0,7.0,74,0.00,,,0.02,471,Wunderground v.1.15,2013-07-03 18:45:00,
2013-07-03 14:47:00,80.4,71.3,30.22,SE,127,4.0,7.0,74,0.00,,,0.02,512,Wunderground v.1.15,2013-07-03 18:47:00,
2013-07-03 14:50:00,80.5,71.4,30.22,ESE,121,4.0,7.0,74,0.00,,,0.02,487,Wunderground v.1.15,2013-07-03 18:50:00,
2013-07-03 14:51:00,80.5,71.0,30.22,SE,135,4.0,4.0,73,0.00,,,0.02,550,Wunderground v.1.15,2013-07-03 18:51:00,
2013-07-03 14:55:00,80.7,71.6,30.22,SE,138,5.0,8.0,74,0.00,,,0.02,756,Wunderground v.1.15,2013-07-03 18:55:00,
2013-07-03 14:57:00,81.0,71.9,30.22,SE,137,4.0,8.0,74,0.00,,,0.02,490,Wunderground v.1.15,2013-07-03 18:57:00,
2013-07-03 15:00:00,81.1,70.8,30.22,ESE,122,5.0,5.0,71,0.00,,,0.02,387,Wunderground v.1.15,2013-07-03 19:00:00,
2013-07-03 15:04:00,80.7,72.0,30.22,SE,135,4.0,5.0,75,0.00,,,0.02,343,Wunderground v.1.15,2013-07-03 19:04:00,
2013-07-03 15:05:00,80.7,71.6,30.22,ESE,120,4.0,6.0,74,0.00,,,0.02,348,Wunderground v.1.15,2013-07-03 19:05:00,
2013-07-03 15:06:00,80.7,71.6,30.21,ESE,123,4.0,6.0,74,0.00,,,0.02,341,Wunderground v.1.15,2013-07-03 19:06:00,
2013-07-03 15:10:00,80.6,71.1,30.22,ESE,114,4.0,8.0,73,0.00,,,0.02,260,Wunderground v.1.15,2013-07-03 19:10:00,
2013-07-03 15:11:00,80.6,71.1,30.22,SE,129,4.0,8.0,73,0.00,,,0.02,246,Wunderground v.1.15,2013-07-03 19:11:00,
2013-07-03 15:13:00,80.4,70.9,30.22,SE,134,4.0,8.0,73,0.00,,,0.02,257,Wunderground v.1.15,2013-07-03 19:13:00,
2013-07-03 15:14:00,80.3,70.4,30.22,SE,145,5.0,8.0,72,0.00,,,0.02,269,Wunderground v.1.15,2013-07-03 19:14:00,
2013-07-03 15:20:00,80.4,70.9,30.22,East,87,5.0,5.0,73,0.00,,,0.02,420,Wunderground v.1.15,2013-07-03 19:20:00,
2013-07-03 15:21:00,80.4,70.9,30.22,South,179,5.0,5.0,73,0.00,,,0.02,371,Wunderground v.1.15,2013-07-03 19:21:00,
2013-07-03 15:22:00,80.5,71.0,30.22,ESE,111,4.0,5.0,73,0.00,,,0.02,357,Wunderground v.1.15,2013-07-03 19:22:00,
2013-07-03 15:26:00,80.7,71.2,30.22,SE,124,4.0,7.0,73,0.00,,,0.02,362,Wunderground v.1.15,2013-07-03 19:26:00,
2013-07-03 15:27:00,80.7,71.2,30.22,SE,135,4.0,7.0,73,0.00,,,0.02,353,Wunderground v.1.15,2013-07-03 19:27:00,
2013-07-03 15:28:00,80.7,71.2,30.22,SE,127,4.0,7.0,73,0.00,,,0.02,346,Wunderground v.1.15,2013-07-03 19:28:00,
2013-07-03 15:29:00,80.7,71.2,30.22,SE,134,4.0,7.0,73,0.00,,,0.02,348,Wunderground v.1.15,2013-07-03 19:29:00,
2013-07-03 15:34:00,80.7,71.2,30.21,SE,127,5.0,6.0,73,0.00,,,0.02,452,Wunderground v.1.15,2013-07-03 19:34:00,
2013-07-03 15:35:00,80.8,71.3,30.21,SSE,147,5.0,6.0,73,0.00,,,0.02,798,Wunderground v.1.15,2013-07-03 19:35:00,
2013-07-03 15:36:00,80.9,71.4,30.21,SE,136,5.0,6.0,73,0.00,,,0.02,798,Wunderground v.1.15,2013-07-03 19:36:00,
2013-07-03 15:39:00,81.1,71.6,30.21,SE,142,4.0,6.0,73,0.00,,,0.02,798,Wunderground v.1.15,2013-07-03 19:39:00,
2013-07-03 15:42:00,81.2,70.9,30.21,SE,142,4.0,6.0,71,0.00,,,0.02,336,Wunderground v.1.15,2013-07-03 19:42:00,
2013-07-03 15:43:00,81.3,71.0,30.21,ESE,113,4.0,6.0,71,0.00,,,0.02,327,Wunderground v.1.15,2013-07-03 19:43:00,
2013-07-03 15:45:00,81.2,70.9,30.21,NE,53,5.0,6.0,71,0.00,,,0.02,322,Wunderground v.1.15,2013-07-03 19:45:00,
2013-07-03 15:48:00,81.2,71.3,30.21,SSE,158,4.0,6.0,72,0.00,,,0.02,420,Wunderground v.1.15,2013-07-03 19:48:00,
2013-07-03 15:49:00,81.2,71.7,30.21,SSE,159,4.0,6.0,73,0.00,,,0.02,436,Wunderground v.1.15,2013-07-03 19:49:00,
2013-07-03 15:52:00,81.3,71.4,30.21,East,84,4.0,4.0,72,0.00,,,0.02,508,Wunderground v.1.15,2013-07-03 19:52:00,
2013-07-03 15:53:00,81.3,71.4,30.21,ESE,117,4.0,5.0,72,0.00,,,0.02,596,Wunderground v.1.15,2013-07-03 19:53:00,
2013-07-03 15:54:00,81.4,70.7,30.21,East,93,4.0,5.0,70,0.00,,,0.02,596,Wunderground v.1.15,2013-07-03 19:54:00,
2013-07-03 15:58:00,81.4,71.1,30.21,SSE,159,4.0,6.0,71,0.00,,,0.02,415,Wunderground v.1.15,2013-07-03 19:58:00,
2013-07-03 16:00:00,81.5,71.6,30.21,ESE,122,4.0,5.0,72,0.00,,,0.02,693,Wunderground v.1.15,2013-07-03 20:00:00,
2013-07-03 16:01:00,81.6,71.7,30.21,SSE,155,4.0,5.0,72,0.00,,,0.02,654,Wunderground v.1.15,2013-07-03 20:01:00,
2013-07-03 16:03:00,81.7,71.8,30.21,SSE,156,4.0,5.0,72,0.00,,,0.02,654,Wunderground v.1.15,2013-07-03 20:03:00,
2013-07-03 16:04:00,81.7,71.0,30.21,South,175,4.0,5.0,70,0.00,,,0.02,436,Wunderground v.1.15,2013-07-03 20:04:00,
2013-07-03 16:08:00,81.7,71.4,30.21,SSE,151,4.0,6.0,71,0.00,,,0.02,503,Wunderground v.1.15,2013-07-03 20:08:00,
2013-07-03 16:09:00,81.7,71.4,30.21,ESE,105,4.0,6.0,71,0.00,,,0.02,758,Wunderground v.1.15,2013-07-03 20:09:00,
2013-07-03 16:11:00,81.8,71.1,30.21,ESE,116,4.0,7.0,70,0.00,,,0.02,387,Wunderground v.1.15,2013-07-03 20:11:00,
2013-07-03 16:15:00,81.9,71.2,30.21,SSE,152,4.0,7.0,70,0.00,,,0.02,255,Wunderground v.1.15,2013-07-03 20:15:00,
2013-07-03 16:17:00,81.9,71.2,30.21,SE,128,4.0,7.0,70,0.00,,,0.02,346,Wunderground v.1.15,2013-07-03 20:17:00,
2013-07-03 16:18:00,81.9,71.2,30.21,SE,127,4.0,7.0,70,0.00,,,0.02,357,Wunderground v.1.15,2013-07-03 20:18:00,
2013-07-03 16:21:00,81.7,71.0,30.21,SE,140,4.0,5.0,70,0.00,,,0.02,279,Wunderground v.1.15,2013-07-03 20:21:00,
2013-07-03 16:22:00,81.6,70.9,30.21,SE,134,4.0,5.0,70,0.00,,,0.02,258,Wunderground v.1.15,2013-07-03 20:22:00,
2013-07-03 16:25:00,81.4,70.7,30.21,ESE,113,4.0,5.0,70,0.00,,,0.02,290,Wunderground v.1.15,2013-07-03 20:25:00,
2013-07-03 16:27:00,81.4,71.5,30.20,SSE,157,4.0,5.0,72,0.00,,,0.02,454,Wunderground v.1.15,2013-07-03 20:27:00,
2013-07-03 16:28:00,81.4,71.1,30.21,SSE,158,4.0,5.0,71,0.00,,,0.02,454,Wunderground v.1.15,2013-07-03 20:28:00,
2013-07-03 16:30:00,81.4,71.1,30.21,SE,127,4.0,6.0,71,0.00,,,0.02,427,Wunderground v.1.15,2013-07-03 20:30:00,
2013-07-03 16:33:00,81.4,70.7,30.21,SSE,157,4.0,7.0,70,0.00,,,0.02,339,Wunderground v.1.15,2013-07-03 20:33:00,
2013-07-03 16:34:00,81.4,70.7,30.21,SE,146,4.0,7.0,70,0.00,,,0.02,406,Wunderground v.1.15,2013-07-03 20:34:00,
2013-07-03 16:37:00,81.5,71.2,30.21,SSE,147,5.0,8.0,71,0.00,,,0.02,715,Wunderground v.1.15,2013-07-03 20:37:00,
2013-07-03 16:39:00,81.7,71.8,30.21,SSE,155,5.0,8.0,72,0.00,,,0.02,715,Wunderground v.1.15,2013-07-03 20:39:00,
2013-07-03 16:43:00,82.0,71.2,30.21,SE,146,5.0,5.0,70,0.00,,,0.02,332,Wunderground v.1.15,2013-07-03 20:43:00,
2013-07-03 16:44:00,82.1,71.3,30.21,SE,141,4.0,5.0,70,0.00,,,0.02,257,Wunderground v.1.15,2013-07-03 20:44:00,
2013-07-03 16:47:00,82.1,70.9,30.21,SE,145,4.0,5.0,69,0.00,,,0.02,218,Wunderground v.1.15,2013-07-03 20:47:00,
2013-07-03 16:50:00,82.0,71.2,30.21,South,175,4.0,8.0,70,0.00,,,0.02,253,Wunderground v.1.15,2013-07-03 20:50:00,
2013-07-03 16:54:00,81.9,71.2,30.21,SE,128,5.0,7.0,70,0.00,,,0.02,373,Wunderground v.1.15,2013-07-03 20:54:00,
2013-07-03 16:56:00,81.9,70.7,30.21,SE,142,5.0,8.0,69,0.00,,,0.02,373,Wunderground v.1.15,2013-07-03 20:56:00,
2013-07-03 16:58:00,82.0,70.8,30.21,SE,127,6.0,8.0,69,0.00,,,0.02,700,Wunderground v.1.15,2013-07-03 20:58:00,
2013-07-03 16:59:00,82.0,70.8,30.21,SSE,155,5.0,8.0,69,0.00,,,0.02,700,Wunderground v.1.15,2013-07-03 20:59:00,
2013-07-03 17:03:00,82.1,71.3,30.21,SE,138,5.0,5.0,70,0.00,,,0.02,239,Wunderground v.1.15,2013-07-03 21:03:00,
2013-07-03 17:04:00,82.1,71.3,30.21,South,173,5.0,5.0,70,0.00,,,0.02,304,Wunderground v.1.15,2013-07-03 21:04:00,
2013-07-03 17:08:00,82.0,71.7,30.21,SSE,153,4.0,6.0,71,0.00,,,0.02,494,Wunderground v.1.15,2013-07-03 21:08:00,
2013-07-03 17:09:00,82.0,71.7,30.21,South,176,4.0,6.0,71,0.00,,,0.02,494,Wunderground v.1.15,2013-07-03 21:09:00,
2013-07-03 17:11:00,81.8,71.9,30.21,SSE,152,4.0,4.0,72,0.00,,,0.02,494,Wunderground v.1.15,2013-07-03 21:11:00,
2013-07-03 17:14:00,81.6,71.7,30.21,South,180,4.0,5.0,72,0.00,,,0.02,299,Wunderground v.1.15,2013-07-03 21:14:00,
2013-07-03 17:16:00,81.6,71.7,30.20,SE,136,4.0,5.0,72,0.00,,,0.02,299,Wunderground v.1.15,2013-07-03 21:16:00,
2013-07-03 17:18:00,81.6,71.7,30.21,SE,142,4.0,5.0,72,0.00,,,0.02,469,Wunderground v.1.15,2013-07-03 21:18:00,
2013-07-03 17:20:00,81.6,71.7,30.20,SSE,157,4.0,5.0,72,0.00,,,0.02,564,Wunderground v.1.15,2013-07-03 21:20:00,
2013-07-03 17:22:00,81.6,71.7,30.21,South,191,4.0,5.0,72,0.00,,,0.02,550,Wunderground v.1.15,2013-07-03 21:22:00,
2013-07-03 17:23:00,81.6,71.3,30.20,SSE,168,4.0,5.0,71,0.00,,,0.02,543,Wunderground v.1.15,2013-07-03 21:23:00,
2013-07-03 17:27:00,81.8,71.5,30.20,SSE,167,4.0,7.0,71,0.00,,,0.02,524,Wunderground v.1.15,2013-07-03 21:27:00,
2013-07-03 17:28:00,81.8,71.9,30.20,SSE,156,4.0,7.0,72,0.00,,,0.02,524,Wunderground v.1.15,2013-07-03 21:28:00,
2013-07-03 17:29:00,81.8,71.5,30.20,SE,140,4.0,7.0,71,0.00,,,0.02,524,Wunderground v.1.15,2013-07-03 21:29:00,
2013-07-03 17:30:00,81.9,72.0,30.20,South,171,4.0,4.0,72,0.00,,,0.02,276,Wunderground v.1.15,2013-07-03 21:30:00,
2013-07-03 17:34:00,82.0,72.1,30.20,SSE,166,4.0,5.0,72,0.00,,,0.02,446,Wunderground v.1.15,2013-07-03 21:34:00,
2013-07-03 17:36:00,82.0,71.7,30.20,SE,144,4.0,5.0,71,0.00,,,0.02,388,Wunderground v.1.15,2013-07-03 21:36:00,
2013-07-03 17:39:00,82.1,71.8,30.20,SE,132,4.0,5.0,71,0.00,,,0.02,475,Wunderground v.1.15,2013-07-03 21:39:00,
2013-07-03 17:41:00,82.2,71.4,30.20,SE,132,4.0,4.0,70,0.00,,,0.02,316,Wunderground v.1.15,2013-07-03 21:41:00,
2013-07-03 17:43:00,82.3,72.0,30.20,SSE,155,4.0,4.0,71,0.00,,,0.02,427,Wunderground v.1.15,2013-07-03 21:43:00,
2013-07-03 17:45:00,82.3,71.1,30.20,SSE,159,4.0,7.0,69,0.00,,,0.02,496,Wunderground v.1.15,2013-07-03 21:45:00,
2013-07-03 17:48:00,82.3,71.5,30.20,SE,130,4.0,7.0,70,0.00,,,0.02,483,Wunderground v.1.15,2013-07-03 21:48:00,
2013-07-03 17:50:00,82.4,71.6,30.20,SE,128,4.0,4.0,70,0.00,,,0.02,334,Wunderground v.1.15,2013-07-03 21:50:00,
2013-07-03 17:52:00,82.5,71.7,30.20,ESE,112,4.0,5.0,70,0.00,,,0.02,167,Wunderground v.1.15,2013-07-03 21:52:00,
2013-07-03 17:54:00,82.6,71.4,30.20,SSE,147,5.0,5.0,69,0.00,,,0.02,167,Wunderground v.1.15,2013-07-03 21:54:00,
2013-07-03 17:56:00,82.6,71.0,30.20,SE,137,4.0,7.0,68,0.00,,,0.02,265,Wunderground v.1.15,2013-07-03 21:56:00,
2013-07-03 17:57:00,82.6,71.0,30.20,SE,124,4.0,7.0,68,0.00,,,0.02,225,Wunderground v.1.15,2013-07-03 21:57:00,
2013-07-03 17:59:00,82.5,71.3,30.20,SE,128,4.0,7.0,69,0.00,,,0.02,374,Wunderground v.1.15,2013-07-03 21:59:00,
2013-07-03 18:00:00,82.5,71.3,30.20,SSE,148,4.0,5.0,69,0.00,,,0.02,330,Wunderground v.1.15,2013-07-03 22:00:00,
2013-07-03 18:03:00,82.5,71.3,30.20,SE,142,4.0,6.0,69,0.00,,,0.02,357,Wunderground v.1.15,2013-07-03 22:03:00,
2013-07-03 18:05:00,82.5,71.3,30.20,SE,124,4.0,6.0,69,0.00,,,0.02,441,Wunderground v.1.15,2013-07-03 22:05:00,
2013-07-03 18:07:00,82.5,71.3,30.20,SE,129,4.0,6.0,69,0.00,,,0.02,424,Wunderground v.1.15,2013-07-03 22:07:00,
2013-07-03 18:10:00,82.4,71.2,30.20,SE,142,5.0,5.0,69,0.00,,,0.02,408,Wunderground v.1.15,2013-07-03 22:10:00,
2013-07-03 18:12:00,82.4,71.2,30.20,SSE,165,5.0,5.0,69,0.00,,,0.02,388,Wunderground v.1.15,2013-07-03 22:12:00,
2013-07-03 18:14:00,82.4,71.2,30.20,SSE,165,5.0,5.0,69,0.00,,,0.02,427,Wunderground v.1.15,2013-07-03 22:14:00,
2013-07-03 18:15:00,82.4,71.6,30.20,SSE,154,4.0,5.0,70,0.00,,,0.02,427,Wunderground v.1.15,2013-07-03 22:15:00,
2013-07-03 18:17:00,82.4,71.2,30.20,SSE,157,5.0,7.0,69,0.00,,,0.02,420,Wunderground v.1.15,2013-07-03 22:17:00,
2013-07-03 18:19:00,82.4,71.2,30.20,South,190,5.0,7.0,69,0.00,,,0.02,410,Wunderground v.1.15,2013-07-03 22:19:00,
2013-07-03 18:21:00,82.4,71.6,30.20,SE,142,5.0,6.0,70,0.00,,,0.02,401,Wunderground v.1.15,2013-07-03 22:21:00,
2013-07-03 18:23:00,82.5,71.3,30.20,South,180,5.0,7.0,69,0.00,,,0.02,394,Wunderground v.1.15,2013-07-03 22:23:00,
2013-07-03 18:27:00,82.6,71.4,30.20,South,178,5.0,7.0,69,0.00,,,0.02,341,Wunderground v.1.15,2013-07-03 22:27:00,
2013-07-03 18:28:00,82.6,71.0,30.20,SE,142,4.0,7.0,68,0.00,,,0.02,330,Wunderground v.1.15,2013-07-03 22:28:00,
2013-07-03 18:32:00,82.6,71.4,30.20,ESE,102,5.0,5.0,69,0.00,,,0.02,302,Wunderground v.1.15,2013-07-03 22:32:00,
2013-07-03 18:33:00,82.7,71.5,30.20,SE,137,4.0,5.0,69,0.00,,,0.02,304,Wunderground v.1.15,2013-07-03 22:33:00,
2013-07-03 18:35:00,82.7,71.5,30.20,East,96,4.0,5.0,69,0.00,,,0.02,301,Wunderground v.1.15,2013-07-03 22:35:00,
2013-07-03 18:36:00,82.7,71.5,30.20,ESE,115,4.0,5.0,69,0.00,,,0.02,297,Wunderground v.1.15,2013-07-03 22:36:00,
2013-07-03 18:38:00,82.8,71.6,30.20,SE,136,4.0,5.0,69,0.00,,,0.02,281,Wunderground v.1.15,2013-07-03 22:38:00,
2013-07-03 18:40:00,82.8,72.0,30.20,East,84,3.0,3.0,70,0.00,,,0.02,274,Wunderground v.1.15,2013-07-03 22:40:00,
2013-07-03 18:43:00,82.9,71.7,30.20,SSE,159,3.0,6.0,69,0.00,,,0.02,237,Wunderground v.1.15,2013-07-03 22:43:00,
2013-07-03 18:48:00,82.6,71.4,30.20,SE,135,3.0,8.0,69,0.00,,,0.02,49,Wunderground v.1.15,2013-07-03 22:48:00,
2013-07-03 18:49:00,82.5,71.7,30.20,SE,134,3.0,8.0,70,0.00,,,0.02,53,Wunderground v.1.15,2013-07-03 22:49:00,
2013-07-03 18:50:00,82.4,71.2,30.20,ESE,112,4.0,7.0,69,0.00,,,0.02,54,Wunderground v.1.15,2013-07-03 22:50:00,
2013-07-03 18:54:00,81.9,71.2,30.20,SE,133,5.0,7.0,70,0.00,,,0.02,149,Wunderground v.1.15,2013-07-03 22:54:00,
2013-07-03 18:56:00,81.9,71.2,30.20,SE,125,5.0,7.0,70,0.00,,,0.02,241,Wunderground v.1.15,2013-07-03 22:56:00,
2013-07-03 19:00:00,81.9,71.6,30.20,SE,130,6.0,6.0,71,0.00,,,0.02,141,Wunderground v.1.15,2013-07-03 23:00:00,
2013-07-03 19:04:00,82.0,71.7,30.20,SE,128,5.0,6.0,71,0.00,,,0.02,185,Wunderground v.1.15,2013-07-03 23:04:00,
2013-07-03 19:06:00,82.0,71.2,30.20,ESE,121,5.0,6.0,70,0.00,,,0.02,225,Wunderground v.1.15,2013-07-03 23:06:00,
2013-07-03 19:07:00,82.0,71.2,30.20,ESE,115,5.0,7.0,70,0.00,,,0.02,221,Wunderground v.1.15,2013-07-03 23:07:00,
2013-07-03 19:09:00,82.0,71.2,30.20,SSE,159,5.0,7.0,70,0.00,,,0.02,197,Wunderground v.1.15,2013-07-03 23:09:00,
2013-07-03 19:11:00,82.0,71.7,30.20,SE,130,5.0,5.0,71,0.00,,,0.02,93,Wunderground v.1.15,2013-07-03 23:11:00,
2013-07-03 19:12:00,81.9,71.6,30.20,SSE,163,5.0,5.0,71,0.00,,,0.02,97,Wunderground v.1.15,2013-07-03 23:12:00,
2013-07-03 19:14:00,81.8,71.5,30.20,SE,129,4.0,5.0,71,0.00,,,0.02,100,Wunderground v.1.15,2013-07-03 23:14:00,
2013-07-03 19:16:00,81.8,71.5,30.20,South,169,4.0,5.0,71,0.00,,,0.02,93,Wunderground v.1.15,2013-07-03 23:16:00,
2013-07-03 19:17:00,81.8,71.9,30.20,SSE,148,4.0,5.0,72,0.00,,,0.02,90,Wunderground v.1.15,2013-07-03 23:17:00,
2013-07-03 19:19:00,81.7,71.8,30.20,SSE,160,3.0,5.0,72,0.00,,,0.02,83,Wunderground v.1.15,2013-07-03 23:19:00,
2013-07-03 19:22:00,81.6,71.7,30.20,SE,146,3.0,6.0,72,0.00,,,0.02,70,Wunderground v.1.15,2013-07-03 23:22:00,
2013-07-03 19:24:00,81.5,71.6,30.20,SE,134,3.0,6.0,72,0.00,,,0.02,63,Wunderground v.1.15,2013-07-03 23:24:00,
2013-07-03 19:25:00,81.4,71.5,30.20,SSE,150,3.0,6.0,72,0.00,,,0.02,62,Wunderground v.1.15,2013-07-03 23:25:00,
2013-07-03 19:28:00,81.3,71.4,30.21,SE,138,3.0,6.0,72,0.00,,,0.02,58,Wunderground v.1.15,2013-07-03 23:28:00,
2013-07-03 19:31:00,81.2,71.3,30.20,SE,134,2.0,5.0,72,0.00,,,0.02,51,Wunderground v.1.15,2013-07-03 23:31:00,
2013-07-03 19:34:00,81.2,71.3,30.21,SSE,150,2.0,5.0,72,0.00,,,0.02,49,Wunderground v.1.15,2013-07-03 23:34:00,
2013-07-03 19:35:00,81.2,71.7,30.21,SE,144,2.0,5.0,73,0.00,,,0.02,47,Wunderground v.1.15,2013-07-03 23:35:00,
2013-07-03 19:38:00,81.2,71.7,30.21,ESE,120,2.0,6.0,73,0.00,,,0.02,44,Wunderground v.1.15,2013-07-03 23:38:00,
2013-07-03 19:42:00,81.0,71.5,30.21,SE,126,3.0,5.0,73,0.00,,,0.02,35,Wunderground v.1.15,2013-07-03 23:42:00,
2013-07-03 19:43:00,81.0,71.5,30.21,SSE,167,3.0,5.0,73,0.00,,,0.02,32,Wunderground v.1.15,2013-07-03 23:43:00,
2013-07-03 19:45:00,80.9,71.4,30.21,SSE,159,3.0,5.0,73,0.00,,,0.02,26,Wunderground v.1.15,2013-07-03 23:45:00,
2013-07-03 19:47:00,80.8,71.3,30.21,SSE,154,3.0,5.0,73,0.00,,,0.02,21,Wunderground v.1.15,2013-07-03 23:47:00,
2013-07-03 19:50:00,80.7,71.2,30.21,SSE,155,3.0,3.0,73,0.00,,,0.02,18,Wunderground v.1.15,2013-07-03 23:50:00,
2013-07-03 19:52:00,80.6,71.5,30.21,SE,138,2.0,5.0,74,0.00,,,0.02,14,Wunderground v.1.15,2013-07-03 23:52:00,
2013-07-03 19:56:00,80.5,71.4,30.21,SE,144,2.0,5.0,74,0.00,,,0.02,11,Wunderground v.1.15,2013-07-03 23:56:00,
2013-07-03 19:57:00,80.5,71.4,30.22,SSE,154,2.0,5.0,74,0.00,,,0.02,11,Wunderground v.1.15,2013-07-03 23:57:00,
2013-07-03 20:01:00,80.4,71.7,30.22,ESE,114,2.0,2.0,75,0.00,,,0.02,11,Wunderground v.1.15,2013-07-04 00:01:00,
2013-07-03 20:03:00,80.3,71.3,30.22,SE,129,2.0,4.0,74,0.00,,,0.02,11,Wunderground v.1.15,2013-07-04 00:03:00,
2013-07-03 20:04:00,80.3,71.3,30.22,South,181,2.0,4.0,74,0.00,,,0.02,11,Wunderground v.1.15,2013-07-04 00:04:00,
2013-07-03 20:08:00,80.2,71.6,30.22,South,175,2.0,4.0,75,0.00,,,0.02,12,Wunderground v.1.15,2013-07-04 00:08:00,
2013-07-03 20:09:00,80.2,71.6,30.22,SE,138,2.0,4.0,75,0.00,,,0.02,12,Wunderground v.1.15,2013-07-04 00:09:00,
2013-07-03 20:10:00,80.1,71.5,30.22,SE,132,2.0,2.0,75,0.00,,,0.02,12,Wunderground v.1.15,2013-07-04 00:10:00,
2013-07-03 20:15:00,80.0,71.4,30.22,SE,144,2.0,4.0,75,0.00,,,0.02,11,Wunderground v.1.15,2013-07-04 00:15:00,
2013-07-03 20:17:00,80.0,71.4,30.22,SE,144,2.0,4.0,75,0.00,,,0.02,9,Wunderground v.1.15,2013-07-04 00:17:00,
2013-07-03 20:18:00,80.0,71.4,30.22,SE,144,2.0,4.0,75,0.00,,,0.02,9,Wunderground v.1.15,2013-07-04 00:18:00,
2013-07-03 20:20:00,79.9,71.3,30.22,SE,138,2.0,2.0,75,0.00,,,0.02,7,Wunderground v.1.15,2013-07-04 00:20:00,
2013-07-03 20:21:00,79.9,71.3,30.22,SSE,162,2.0,2.0,75,0.00,,,0.02,7,Wunderground v.1.15,2013-07-04 00:21:00,
2013-07-03 20:24:00,79.8,71.2,30.22,SSE,155,2.0,3.0,75,0.00,,,0.02,5,Wunderground v.1.15,2013-07-04 00:24:00,
2013-07-03 20:25:00,79.8,71.6,30.22,SSE,155,2.0,3.0,76,0.00,,,0.02,5,Wunderground v.1.15,2013-07-04 00:25:00,
2013-07-03 20:26:00,79.8,71.6,30.22,SSE,155,2.0,3.0,76,0.00,,,0.02,5,Wunderground v.1.15,2013-07-04 00:26:00,
2013-07-03 20:30:00,79.6,71.4,30.22,SSE,157,1.0,2.0,76,0.00,,,0.02,0,Wunderground v.1.15,2013-07-04 00:30:00,
2013-07-03 20:31:00,79.6,71.4,30.22,SSE,163,1.0,2.0,76,0.00,,,0.02,0,Wunderground v.1.15,2013-07-04 00:31:00,
2013-07-03 20:33:00,79.6,71.4,30.22,SSE,157,1.0,2.0,76,0.00,,,0.02,0,Wunderground v.1.15,2013-07-04 00:33:00,
2013-07-03 20:34:00,79.5,71.3,30.22,South,184,1.0,2.0,76,0.00,,,0.02,0,Wunderground v.1.15,2013-07-04 00:34:00,
2013-07-03 20:36:00,79.4,71.2,30.22,SSE,162,1.0,2.0,76,0.00,,,0.02,0,Wunderground v.1.15,2013-07-04 00:36:00,
2013-07-03 20:41:00,79.4,71.2,30.22,SSE,153,1.0,1.0,76,0.00,,,0.02,0,Wunderground v.1.15,2013-07-04 00:41:00,
2013-07-03 20:42:00,79.3,71.1,30.22,SSE,153,1.0,1.0,76,0.00,,,0.02,0,Wunderground v.1.15,2013-07-04 00:42:00,
2013-07-03 20:43:00,79.3,71.1,30.22,SE,131,1.0,3.0,76,0.00,,,0.02,0,Wunderground v.1.15,2013-07-04 00:43:00,
2013-07-03 20:46:00,79.3,71.1,30.22,SE,135,2.0,4.0,76,0.00,,,0.02,0,Wunderground v.1.15,2013-07-04 00:46:00,
2013-07-03 20:48:00,79.3,71.1,30.22,SE,146,2.0,4.0,76,0.00,,,0.02,0,Wunderground v.1.15,2013-07-04 00:48:00,
2013-07-03 20:52:00,79.3,71.1,30.22,SE,140,2.0,4.0,76,0.00,,,0.02,0,Wunderground v.1.15,2013-07-04 00:52:00,
2013-07-03 20:54:00,79.3,71.1,30.22,SSE,150,2.0,4.0,76,0.00,,,0.02,0,Wunderground v.1.15,2013-07-04 00:54:00,
2013-07-03 20:57:00,79.2,71.4,30.22,SSE,153,1.0,4.0,77,0.00,,,0.02,0,Wunderground v.1.15,2013-07-04 00:57:00,
2013-07-03 20:58:00,79.2,71.4,30.22,SSE,157,1.0,4.0,77,0.00,,,0.02,0,Wunderground v.1.15,2013-07-04 00:58:00,
2013-07-03 20:59:00,79.2,71.4,30.22,SSE,157,1.0,4.0,77,0.00,,,0.02,0,Wunderground v.1.15,2013-07-04 00:59:00,
2013-07-03 21:00:00,79.1,71.3,30.22,SE,132,1.0,1.0,77,0.00,,,0.02,0,Wunderground v.1.15,2013-07-04 01:00:00,
2013-07-03 21:05:00,79.0,71.2,30.22,SSE,159,1.0,2.0,77,0.00,,,0.02,0,Wunderground v.1.15,2013-07-04 01:05:00,
2013-07-03 21:07:00,78.9,71.1,30.22,SSE,159,1.0,2.0,77,0.00,,,0.02,0,Wunderground v.1.15,2013-07-04 01:07:00,
2013-07-03 21:08:00,78.9,71.5,30.22,SSE,159,1.0,2.0,78,0.00,,,0.02,0,Wunderground v.1.15,2013-07-04 01:08:00,
2013-07-03 21:11:00,78.8,71.4,30.22,SSE,159,1.0,1.0,78,0.00,,,0.02,0,Wunderground v.1.15,2013-07-04 01:11:00,
2013-07-03 21:13:00,78.7,71.3,30.22,SSE,159,1.0,1.0,78,0.00,,,0.02,0,Wunderground v.1.15,2013-07-04 01:13:00,
2013-07-03 21:15:00,78.7,71.3,30.22,SSE,159,1.0,2.0,78,0.00,,,0.02,0,Wunderground v.1.15,2013-07-04 01:15:00,
2013-07-03 21:18:00,78.6,71.2,30.22,SSE,168,1.0,2.0,78,0.00,,,0.02,0,Wunderground v.1.15,2013-07-04 01:18:00,
2013-07-03 21:21:00,78.5,71.4,30.22,SSE,168,1.0,2.0,79,0.00,,,0.02,0,Wunderground v.1.15,2013-07-04 01:21:00,
2013-07-03 21:23:00,78.4,71.3,30.23,SSE,168,1.0,2.0,79,0.00,,,0.02,0,Wunderground v.1.15,2013-07-04 01:23:00,
2013-07-03 21:27:00,78.2,71.5,30.23,SSE,168,1.0,2.0,80,0.00,,,0.02,0,Wunderground v.1.15,2013-07-04 01:27:00,
2013-07-03 21:28:00,78.2,71.5,30.23,SSE,168,1.0,2.0,80,0.00,,,0.02,0,Wunderground v.1.15,2013-07-04 01:28:00,
2013-07-03 21:32:00,78.1,71.4,30.23,SSE,168,0.0,1.0,80,0.00,,,0.02,0,Wunderground v.1.15,2013-07-04 01:32:00,
2013-07-03 21:34:00,78.0,71.3,30.23,SSE,168,0.0,1.0,80,0.00,,,0.02,0,Wunderground v.1.15,2013-07-04 01:34:00,
2013-07-03 21:35:00,78.0,71.3,30.23,SSE,168,0.0,1.0,80,0.00,,,0.02,0,Wunderground v.1.15,2013-07-04 01:35:00,
2013-07-03 21:36:00,78.0,71.3,30.23,SSE,168,0.0,1.0,80,0.00,,,0.02,0,Wunderground v.1.15,2013-07-04 01:36:00,
2013-07-03 21:41:00,77.9,71.2,30.24,SSE,168,0.0,0.0,80,0.00,,,0.02,0,Wunderground v.1.15,2013-07-04 01:41:00,
2013-07-03 21:43:00,77.8,71.1,30.24,SSE,168,0.0,0.0,80,0.00,,,0.02,0,Wunderground v.1.15,2013-07-04 01:43:00,
2013-07-03 21:44:00,77.8,71.1,30.24,SSE,168,0.0,0.0,80,0.00,,,0.02,0,Wunderground v.1.15,2013-07-04 01:44:00,
2013-07-03 21:45:00,77.8,70.8,30.24,SSE,168,0.0,0.0,79,0.00,,,0.02,0,Wunderground v.1.15,2013-07-04 01:45:00,
2013-07-03 21:49:00,77.8,71.1,30.24,SSE,168,0.0,0.0,80,0.00,,,0.02,0,Wunderground v.1.15,2013-07-04 01:49:00,
2013-07-03 21:50:00,77.8,71.1,30.24,SSE,168,0.0,0.0,80,0.00,,,0.02,0,Wunderground v.1.15,2013-07-04 01:50:00,
2013-07-03 21:53:00,77.8,71.1,30.24,SSE,168,0.0,0.0,80,0.00,,,0.02,0,Wunderground v.1.15,2013-07-04 01:53:00,
2013-07-03 21:56:00,77.8,71.5,30.24,South,187,0.0,0.0,81,0.00,,,0.02,0,Wunderground v.1.15,2013-07-04 01:56:00,
2013-07-03 21:59:00,77.8,71.5,30.24,South,190,0.0,1.0,81,0.00,,,0.02,0,Wunderground v.1.15,2013-07-04 01:59:00,
2013-07-03 22:00:00,77.7,71.4,30.24,South,190,0.0,0.0,81,0.00,,,0.02,0,Wunderground v.1.15,2013-07-04 02:00:00,
2013-07-03 22:02:00,77.7,71.4,30.23,South,190,0.0,0.0,81,0.00,,,0.02,0,Wunderground v.1.15,2013-07-04 02:02:00,
2013-07-03 22:07:00,77.6,70.9,30.23,South,190,0.0,2.0,80,0.00,,,0.02,0,Wunderground v.1.15,2013-07-04 02:07:00,
2013-07-03 22:09:00,77.6,70.9,30.24,South,190,1.0,4.0,80,0.00,,,0.02,0,Wunderground v.1.15,2013-07-04 02:09:00,
2013-07-03 22:12:00,77.5,70.8,30.24,SSW,207,1.0,4.0,80,0.00,,,0.02,0,Wunderground v.1.15,2013-07-04 02:12:00,
2013-07-03 22:13:00,77.5,71.2,30.24,South,189,1.0,4.0,81,0.00,,,0.02,0,Wunderground v.1.15,2013-07-04 02:13:00,
2013-07-03 22:16:00,77.4,71.1,30.24,South,191,1.0,4.0,81,0.00,,,0.02,0,Wunderground v.1.15,2013-07-04 02:16:00,
2013-07-03 22:17:00,77.4,71.1,30.24,SSW,205,1.0,4.0,81,0.00,,,0.02,0,Wunderground v.1.15,2013-07-04 02:17:00,
2013-07-03 22:20:00,77.3,71.0,30.24,SSW,205,1.0,1.0,81,0.00,,,0.02,0,Wunderground v.1.15,2013-07-04 02:20:00,
2013-07-03 22:22:00,77.3,70.6,30.24,SSW,205,1.0,2.0,80,0.00,,,0.02,0,Wunderground v.1.15,2013-07-04 02:22:00,
2013-07-03 22:23:00,77.3,71.0,30.24,SSW,205,1.0,2.0,81,0.00,,,0.02,0,Wunderground v.1.15,2013-07-04 02:23:00,
2013-07-03 22:26:00,77.4,71.1,30.24,SSW,205,1.0,2.0,81,0.00,,,0.02,0,Wunderground v.1.15,2013-07-04 02:26:00,
2013-07-03 22:29:00,77.4,70.7,30.24,SSW,205,1.0,2.0,80,0.00,,,0.02,0,Wunderground v.1.15,2013-07-04 02:29:00,
2013-07-03 22:30:00,77.4,70.7,30.24,SSW,205,1.0,4.0,80,0.00,,,0.02,0,Wunderground v.1.15,2013-07-04 02:30:00,
2013-07-03 22:32:00,77.4,70.7,30.24,South,191,1.0,4.0,80,0.00,,,0.02,0,Wunderground v.1.15,2013-07-04 02:32:00,
2013-07-03 22:37:00,77.4,70.7,30.24,SSW,196,2.0,4.0,80,0.00,,,0.02,0,Wunderground v.1.15,2013-07-04 02:37:00,
2013-07-03 22:38:00,77.4,70.7,30.24,South,178,2.0,4.0,80,0.00,,,0.02,0,Wunderground v.1.15,2013-07-04 02:38:00,
2013-07-03 22:43:00,77.3,71.0,30.24,South,185,2.0,3.0,81,0.00,,,0.02,0,Wunderground v.1.15,2013-07-04 02:43:00,
2013-07-03 22:44:00,77.2,70.9,30.24,South,184,2.0,3.0,81,0.00,,,0.02,0,Wunderground v.1.15,2013-07-04 02:44:00,
2013-07-03 22:45:00,77.2,70.9,30.24,SSW,194,3.0,3.0,81,0.00,,,0.02,0,Wunderground v.1.15,2013-07-04 02:45:00,
2013-07-03 22:47:00,77.0,71.1,30.24,SSW,200,3.0,5.0,82,0.00,,,0.02,0,Wunderground v.1.15,2013-07-04 02:47:00,
2013-07-03 22:51:00,76.7,70.8,30.24,SSW,198,3.0,4.0,82,0.00,,,0.02,0,Wunderground v.1.15,2013-07-04 02:51:00,
2013-07-03 22:52:00,76.6,70.7,30.24,SSW,202,3.0,4.0,82,0.00,,,0.02,0,Wunderground v.1.15,2013-07-04 02:52:00,
2013-07-03 22:54:00,76.5,70.9,30.24,SSW,211,3.0,4.0,83,0.00,,,0.02,0,Wunderground v.1.15,2013-07-04 02:54:00,
2013-07-03 22:57:00,76.4,70.9,30.24,South,189,3.0,4.0,83,0.00,,,0.02,0,Wunderground v.1.15,2013-07-04 02:57:00,
2013-07-03 22:59:00,76.4,70.9,30.24,SW,223,2.0,4.0,83,0.00,,,0.02,0,Wunderground v.1.15,2013-07-04 02:59:00,
2013-07-03 23:04:00,76.2,70.7,30.24,SW,215,1.0,4.0,83,0.00,,,0.02,0,Wunderground v.1.15,2013-07-04 03:04:00,
2013-07-03 23:05:00,76.3,70.8,30.24,SW,216,1.0,4.0,83,0.00,,,0.02,0,Wunderground v.1.15,2013-07-04 03:05:00,
2013-07-03 23:06:00,76.2,70.7,30.24,SW,216,1.0,4.0,83,0.00,,,0.02,0,Wunderground v.1.15,2013-07-04 03:06:00,
2013-07-03 23:07:00,76.3,70.8,30.24,SW,216,1.0,4.0,83,0.00,,,0.02,0,Wunderground v.1.15,2013-07-04 03:07:00,
2013-07-03 23:10:00,76.2,70.7,30.24,SW,216,1.0,1.0,83,0.00,,,0.02,0,Wunderground v.1.15,2013-07-04 03:10:00,
2013-07-03 23:13:00,76.3,70.8,30.24,South,187,1.0,4.0,83,0.00,,,0.02,0,Wunderground v.1.15,2013-07-04 03:13:00,
2013-07-03 23:15:00,76.4,70.9,30.24,SSW,195,1.0,4.0,83,0.00,,,0.02,0,Wunderground v.1.15,2013-07-04 03:15:00,
2013-07-03 23:17:00,76.4,70.9,30.24,WSW,256,2.0,4.0,83,0.00,,,0.02,0,Wunderground v.1.15,2013-07-04 03:17:00,
2013-07-03 23:21:00,76.4,70.9,30.24,SSW,200,2.0,2.0,83,0.00,,,0.02,0,Wunderground v.1.15,2013-07-04 03:21:00,
2013-07-03 23:23:00,76.5,70.9,30.24,SSW,200,2.0,2.0,83,0.00,,,0.02,0,Wunderground v.1.15,2013-07-04 03:23:00,
2013-07-03 23:27:00,76.3,70.8,30.24,SSW,200,1.0,2.0,83,0.00,,,0.02,0,Wunderground v.1.15,2013-07-04 03:27:00,
2013-07-03 23:30:00,76.1,70.6,30.24,SSW,200,1.0,1.0,83,0.00,,,0.02,0,Wunderground v.1.15,2013-07-04 03:30:00,
2013-07-03 23:33:00,76.0,70.8,30.24,SSW,200,1.0,1.0,84,0.00,,,0.02,0,Wunderground v.1.15,2013-07-04 03:33:00,
2013-07-03 23:35:00,75.9,70.7,30.24,SSW,200,1.0,1.0,84,0.00,,,0.02,0,Wunderground v.1.15,2013-07-04 03:35:00,
2013-07-03 23:39:00,75.8,70.6,30.24,SSW,200,1.0,1.0,84,0.00,,,0.02,0,Wunderground v.1.15,2013-07-04 03:39:00,
2013-07-03 23:40:00,75.7,70.5,30.24,SSW,200,0.0,0.0,84,0.00,,,0.02,0,Wunderground v.1.15,2013-07-04 03:40:00,
2013-07-03 23:44:00,75.7,70.9,30.24,SSW,200,0.0,0.0,85,0.00,,,0.02,0,Wunderground v.1.15,2013-07-04 03:44:00,
2013-07-03 23:47:00,75.6,70.8,30.24,SSW,200,0.0,0.0,85,0.00,,,0.02,0,Wunderground v.1.15,2013-07-04 03:47:00,
2013-07-03 23:49:00,75.6,70.8,30.24,SSW,200,0.0,0.0,85,0.00,,,0.02,0,Wunderground v.1.15,2013-07-04 03:49:00,
2013-07-03 23:52:00,75.5,70.7,30.24,SSW,200,0.0,1.0,85,0.00,,,0.02,0,Wunderground v.1.15,2013-07-04 03:52:00,
2013-07-03 23:53:00,75.5,70.7,30.24,SSW,200,0.0,1.0,85,0.00,,,0.02,0,Wunderground v.1.15,2013-07-04 03:53:00,
2013-07-03 23:55:00,75.5,71.0,30.24,SSW,200,0.0,1.0,86,0.00,,,0.02,0,Wunderground v.1.15,2013-07-04 03:55:00,